AMITY Weather Reports


time (UTC)temp
C
wind
direction
speed
KPH
gust
KPH
rain 1hr
cm
rain 24hr
cm
rain mn
cm
humidity
%
barometer
mb
20260510153430 22 5 4.8 8.0 0.00 3.96 0.00 91 1016.3
20260510153337 22 53 3.2 6.4 0.00 3.96 0.00 91 1016.3
20260510153223 22 51 1.6 8.0 0.00 3.96 0.00 91 1016.3
20260510153148 22 55 1.6 8.0 0.00 3.96 0.00 91 1016.3
20260510153027 22 52 1.6 8.0 0.00 3.96 0.00 91 1016.4
20260510152941 22 50 1.6 8.0 0.00 3.96 0.00 91 1016.4
20260510152828 22 152 1.6 8.0 0.00 3.96 0.00 91 1016.3
20260510152724 22 152 1.6 8.0 0.00 3.96 0.00 91 1016.4
20260510152657 22 21 0.0 6.4 0.00 3.96 0.00 91 1016.4
20260510152536 22 21 0.0 6.4 0.00 3.96 0.00 91 1016.4
20260510152423 22 21 1.6 6.4 0.00 3.96 0.00 91 1016.4
20260510152330 22 21 1.6 6.4 0.00 3.96 0.00 91 1016.4
20260510152242 22 154 0.0 6.4 0.00 3.96 0.00 91 1016.5
20260510152138 22 159 0.0 6.4 0.00 3.96 0.00 91 1016.4
20260510152039 22 159 0.0 6.4 0.00 3.96 0.00 91 1016.5
20260510151929 22 34 1.6 6.4 0.00 3.96 0.00 91 1016.4
20260510151836 22 29 1.6 6.4 0.00 3.96 0.00 91 1016.5
20260510151721 22 31 1.6 6.4 0.00 3.96 0.00 91 1016.4
20260510151645 22 30 1.6 6.4 0.00 3.96 0.00 91 1016.4
20260510151521 22 158 1.6 6.4 0.00 3.96 0.00 91 1016.4
20260510151432 22 158 1.6 6.4 0.00 3.96 0.00 91 1016.5
20260510151345 22 158 1.6 6.4 0.00 3.96 0.00 91 1016.5
20260510151230 22 35 0.0 6.4 0.00 3.96 0.00 91 1016.5
20260510151147 22 34 0.0 6.4 0.00 3.96 0.00 91 1016.4
20260510151022 22 34 1.6 6.4 0.00 3.96 0.00 91 1016.5
20260510150935 22 34 3.2 6.4 0.00 3.96 0.00 91 1016.5
20260510150825 22 26 3.2 6.4 0.00 4.04 0.00 91 1016.5
20260510150722 22 34 1.6 6.4 0.00 4.04 0.00 91 1016.4
20260510150654 22 34 1.6 6.4 0.00 4.04 0.00 91 1016.4
20260510150528 22 34 0.0 6.4 0.00 4.04 0.00 91 1016.4
20260510150503 22 32 0.0 6.4 0.00 4.04 0.00 91 1016.4
20260510150333 21 32 0.0 6.4 0.00 4.04 0.00 91 1016.4
20260510150250 21 32 0.0 6.4 0.00 4.04 0.00 91 1016.4
20260510150140 21 32 1.6 6.4 0.00 4.04 0.00 91 1016.4
20260510150103 21 32 1.6 6.4 0.00 4.04 0.00 91 1016.4
20260510145929 21 34 3.2 6.4 0.00 4.04 0.00 91 1016.4
20260510145837 21 28 3.2 6.4 0.00 4.04 0.00 91 1016.4
20260510145727 21 33 1.6 6.4 0.00 4.04 0.00 91 1016.5
20260510145651 21 33 1.6 6.4 0.00 4.04 0.00 91 1016.4
20260510145528 21 171 0.0 6.4 0.00 4.04 0.00 91 1016.4
20260510145433 21 171 0.0 6.4 0.00 4.04 0.00 91 1016.4
20260510145346 21 171 1.6 6.4 0.00 4.04 0.00 91 1016.4
20260510145243 21 171 1.6 8.0 0.00 4.04 0.00 91 1016.4
20260510145138 21 173 1.6 6.4 0.00 4.04 0.00 91 1016.4
20260510145033 21 173 1.6 6.4 0.00 4.04 0.00 91 1016.4
20260510144940 21 175 1.6 6.4 0.00 4.04 0.00 91 1016.3
20260510144825 21 59 0.0 3.2 0.00 4.04 0.00 91 1016.4
20260510144729 21 59 0.0 3.2 0.00 4.04 0.00 91 1016.3
20260510144635 21 59 0.0 3.2 0.00 4.04 0.00 91 1016.4
20260510144542 21 59 0.0 6.4 0.00 4.04 0.00 91 1016.4
20260510144429 21 59 0.0 6.4 0.00 4.04 0.00 91 1016.4
20260510144337 21 59 0.0 6.4 0.00 4.04 0.00 91 1016.4
20260510144223 21 59 0.0 6.4 0.00 4.04 0.00 91 1016.4
20260510144147 21 59 0.0 6.4 0.00 4.04 0.00 91 1016.4
20260510144027 21 59 0.0 6.4 0.00 4.04 0.00 91 1016.4
20260510143932 21 59 1.6 6.4 0.00 4.04 0.00 91 1016.4
20260510143845 21 59 1.6 6.4 0.00 4.04 0.00 91 1016.4
20260510143731 21 59 3.2 6.4 0.00 4.04 0.00 91 1016.4
20260510143647 21 61 1.6 6.4 0.00 4.04 0.00 91 1016.4
20260510143525 21 15 1.6 4.8 0.00 4.04 0.00 91 1016.4
20260510143438 21 15 1.6 4.8 0.00 4.04 0.00 91 1016.4
20260510143324 21 15 1.6 4.8 0.00 4.04 0.00 91 1016.4
20260510143221 21 13 0.0 3.2 0.00 4.04 0.00 91 1016.4
20260510143155 21 13 0.0 3.2 0.00 4.04 0.00 91 1016.5
20260510143029 21 14 0.0 3.2 0.00 4.04 0.00 91 1016.4
20260510143002 21 13 0.0 3.2 0.00 4.04 0.00 91 1016.5
20260510142832 21 13 0.0 3.2 0.00 4.04 0.00 91 1016.5
20260510142728 21 13 0.0 3.2 0.00 4.04 0.00 91 1016.5
20260510142640 21 13 1.6 3.2 0.00 4.04 0.00 91 1016.5
20260510142535 21 13 0.0 1.6 0.00 4.04 0.00 91 1016.5
20260510142450 21 13 0.0 1.6 0.00 4.04 0.00 91 1016.5
20260510142332 21 13 0.0 3.2 0.00 4.04 0.00 91 1016.5
20260510142222 21 13 0.0 3.2 0.00 4.04 0.00 91 1016.5
20260510142146 21 13 0.0 3.2 0.00 4.04 0.00 91 1016.5
20260510142022 21 13 0.0 3.2 0.00 4.04 0.00 91 1016.5
20260510141929 21 13 0.0 3.2 0.00 4.04 0.00 91 1016.4
20260510141842 21 13 0.0 3.2 0.00 4.04 0.00 91 1016.4
20260510141724 21 13 0.0 6.4 0.00 4.04 0.00 91 1016.4
20260510141650 21 13 0.0 6.4 0.00 4.04 0.00 91 1016.3
20260510141523 21 13 0.0 6.4 0.00 4.04 0.00 91 1016.3
20260510141436 21 13 1.6 6.4 0.00 4.04 0.00 91 1016.3
20260510141324 21 13 0.0 6.4 0.00 4.04 0.00 91 1016.3
20260510141245 21 11 0.0 6.4 0.00 4.04 0.00 91 1016.4
20260510141133 21 11 0.0 6.4 0.00 4.04 0.00 91 1016.4
20260510141028 21 11 1.6 6.4 0.00 4.04 0.00 91 1016.4
20260510140942 21 12 3.2 6.4 0.00 4.04 0.00 91 1016.4
20260510140830 21 11 1.6 6.4 0.00 5.84 0.00 91 1016.4
20260510140726 21 23 1.6 6.4 0.00 5.84 0.00 91 1016.4
20260510140644 21 49 1.6 6.4 0.00 5.84 0.00 91 1016.4
20260510140559 21 50 1.6 6.4 0.00 5.84 0.00 91 1016.4
20260510140430 21 50 0.0 6.4 0.00 5.84 0.00 91 1016.4
20260510140336 21 50 0.0 6.4 0.00 5.84 0.00 91 1016.4
20260510140250 21 50 0.0 6.4 0.00 5.84 0.00 91 1016.4
20260510140146 21 50 0.0 6.4 0.00 5.84 0.00 91 1016.4
20260510140025 21 50 1.6 6.4 0.00 5.84 0.00 91 1016.3
20260510135939 21 50 3.2 6.4 0.00 5.84 0.00 91 1016.3
20260510135826 21 48 3.2 6.4 0.00 5.84 0.00 91 1016.3
20260510135722 21 355 1.6 6.4 0.00 5.84 0.00 91 1016.3
20260510135655 21 351 1.6 6.4 0.00 5.84 0.00 91 1016.3
20260510135530 21 348 1.6 6.4 0.00 5.84 0.00 91 1016.3
20260510135440 21 42 3.2 6.4 0.00 5.84 0.00 91 1016.3
20260510135333 21 46 3.2 6.4 0.00 5.84 0.00 91 1016.2
20260510135230 21 38 1.6 4.8 0.00 5.84 0.00 91 1016.2
20260510135203 21 31 0.0 4.8 0.00 5.84 0.00 91 1016.2
20260510135036 21 32 0.0 4.8 0.00 5.84 0.00 91 1016.2
20260510134924 21 32 0.0 4.8 0.00 5.84 0.00 91 1016.2
20260510134835 21 32 0.0 4.8 0.00 5.84 0.00 91 1016.2
20260510134720 21 32 0.0 4.8 0.00 5.84 0.00 91 1016.2
20260510134643 21 32 0.0 4.8 0.00 5.84 0.00 91 1016.2
20260510134605 21 32 0.0 4.8 0.00 5.84 0.00 91 1016.2
20260510134430 20 32 0.0 4.8 0.00 5.84 0.00 91 1016.2
20260510134335 20 32 0.0 4.8 0.00 5.84 0.00 91 1016.2
20260510134224 20 32 0.0 1.6 0.00 5.84 0.00 91 1016.1
20260510134148 20 34 0.0 0.0 0.00 5.84 0.00 91 1016.1
20260510134042 20 34 0.0 0.0 0.00 5.84 0.00 91 1016.2
20260510133935 20 34 0.0 0.0 0.00 5.84 0.00 91 1016.2
20260510133822 20 34 0.0 0.0 0.00 5.84 0.00 91 1016.1
20260510133723 20 34 0.0 0.0 0.00 5.84 0.00 91 1016.1
20260510133636 20 34 0.0 0.0 0.00 5.84 0.00 91 1016.1
20260510133532 20 34 0.0 0.0 0.00 5.84 0.00 91 1016.1
20260510133438 20 34 0.0 0.0 0.00 5.84 0.00 91 1016.1
20260510133323 20 34 0.0 0.0 0.00 5.84 0.00 91 1016.1
20260510133227 20 34 0.0 0.0 0.00 5.84 0.00 91 1016.1
20260510133144 20 34 0.0 0.0 0.00 5.84 0.00 91 1016.1
20260510133059 20 34 0.0 0.0 0.00 5.84 0.00 91 1016.1
20260510132953 20 34 0.0 0.0 0.00 5.84 0.00 91 1016.1
20260510132839 20 34 0.0 1.6 0.00 5.84 0.00 91 1016.0
20260510132724 20 34 0.0 1.6 0.00 5.84 0.00 91 1016.0
20260510132648 20 34 0.0 1.6 0.00 5.84 0.00 91 1016.0
20260510132525 20 34 0.0 3.2 0.00 5.84 0.00 91 1016.0
20260510132459 20 34 0.0 3.2 0.00 5.84 0.00 91 1016.0
20260510132324 20 34 0.0 3.2 0.00 5.84 0.00 91 1015.9
20260510132223 20 34 0.0 3.2 0.00 5.84 0.00 91 1015.9
20260510132133 20 34 0.0 3.2 0.00 5.84 0.00 91 1015.9
20260510132037 20 34 0.0 3.2 0.00 5.84 0.00 91 1015.9
20260510131927 20 34 0.0 3.2 0.00 5.84 0.00 91 1015.9
20260510131836 20 34 0.0 3.2 0.00 5.84 0.00 91 1015.9
20260510131721 20 34 1.6 3.2 0.00 5.84 0.00 91 1015.9
20260510131646 20 33 1.6 3.2 0.00 5.84 0.00 91 1015.9
20260510131521 20 33 0.0 1.6 0.00 5.84 0.00 91 1015.8
20260510131427 20 33 0.0 1.6 0.00 5.84 0.00 91 1015.8
20260510131346 20 33 0.0 4.8 0.00 5.84 0.00 91 1015.8
20260510131223 20 33 0.0 4.8 0.00 5.84 0.00 91 1015.8
20260510131148 20 33 0.0 4.8 0.00 5.84 0.00 91 1015.7
20260510131024 20 33 0.0 4.8 0.00 5.84 0.00 91 1015.8
20260510130937 20 33 0.0 4.8 0.00 5.84 0.00 91 1015.7
20260510130847 20 33 0.0 4.8 0.00 8.15 0.00 91 1015.8
20260510130722 20 33 0.0 4.8 0.00 8.15 0.00 91 1015.8
20260510130655 20 33 0.0 4.8 0.00 8.15 0.00 91 1015.7
20260510130558 20 33 1.6 4.8 0.00 8.15 0.00 91 1015.8
20260510130421 20 33 0.0 4.8 0.00 8.15 0.00 91 1015.6
20260510130354 20 33 0.0 1.6 0.00 8.15 0.00 91 1015.6
20260510130251 20 33 0.0 1.6 0.00 8.15 0.00 91 1015.6
20260510130143 20 33 0.0 1.6 0.00 8.15 0.00 91 1015.7
20260510130021 20 33 0.0 3.2 0.00 8.15 0.00 91 1015.7
20260510125956 20 33 0.0 3.2 0.00 8.15 0.00 91 1015.7
20260510125822 20 33 0.0 3.2 0.00 8.15 0.00 91 1015.7
20260510125733 20 33 0.0 3.2 0.00 8.15 0.00 91 1015.6
20260510125651 20 33 0.0 3.2 0.00 8.15 0.00 91 1015.6
20260510125525 20 33 0.0 3.2 0.00 8.15 0.00 91 1015.6
20260510125442 20 33 0.0 3.2 0.00 8.15 0.00 91 1015.6
20260510125329 20 33 0.0 3.2 0.00 8.15 0.00 91 1015.6
20260510125226 20 33 0.0 3.2 0.00 8.15 0.00 91 1015.5
20260510125139 20 32 0.0 3.2 0.00 8.15 0.00 91 1015.5
20260510125035 20 32 0.0 1.6 0.00 8.15 0.00 91 1015.5
20260510124924 20 32 0.0 1.6 0.00 8.15 0.00 91 1015.4
20260510124838 20 32 0.0 1.6 0.00 8.15 0.00 91 1015.4
20260510124723 20 32 0.0 1.6 0.00 8.15 0.00 91 1015.4
20260510124645 20 32 0.0 3.2 0.00 8.15 0.00 91 1015.4
20260510124521 20 32 0.0 3.2 0.00 8.15 0.00 91 1015.4
20260510124427 20 32 0.0 3.2 0.00 8.15 0.00 91 1015.4
20260510124341 20 32 0.0 3.2 0.00 8.15 0.00 91 1015.4
20260510124222 20 32 0.0 3.2 0.00 8.15 0.00 91 1015.4
20260510124155 20 32 0.0 3.2 0.00 8.15 0.00 91 1015.4
20260510124030 20 32 0.0 3.2 0.00 8.15 0.00 91 1015.3
20260510123957 20 32 0.0 3.2 0.00 8.15 0.00 91 1015.3
20260510123829 20 32 1.6 4.8 0.00 8.15 0.00 91 1015.3
20260510123730 20 32 1.6 4.8 0.00 8.15 0.00 91 1015.3
20260510123643 20 32 1.6 4.8 0.00 8.15 0.00 91 1015.3
20260510123539 20 32 1.6 4.8 0.00 8.15 0.00 91 1015.3
20260510123426 20 31 0.0 4.8 0.00 8.15 0.00 91 1015.3
20260510123332 20 31 0.0 4.8 0.00 8.15 0.00 91 1015.3
20260510123228 20 31 0.0 4.8 0.00 8.15 0.00 91 1015.3
20260510123144 20 31 1.6 4.8 0.00 8.15 0.00 91 1015.2
20260510123048 20 31 1.6 4.8 0.00 8.15 0.00 91 1015.2
20260510122934 20 30 1.6 4.8 0.00 8.15 0.00 91 1015.2
20260510122821 20 30 1.6 4.8 0.00 8.15 0.00 91 1015.2
20260510122728 20 30 1.6 3.2 0.00 8.15 0.00 90 1015.2
20260510122712 20 30 0.0 3.2 0.00 8.15 0.00 90 1015.2
20260510122528 20 30 0.0 4.8 0.00 8.15 0.00 91 1015.1
20260510122442 20 30 0.0 4.8 0.00 8.15 0.00 91 1015.2
20260510122327 20 30 0.0 4.8 0.00 8.15 0.00 90 1015.1
20260510122222 20 30 0.0 4.8 0.00 8.15 0.00 90 1015.1
20260510122134 20 30 0.0 4.8 0.00 8.15 0.00 90 1015.1
20260510122030 20 30 0.0 4.8 0.00 8.15 0.00 90 1015.0
20260510121921 20 30 0.0 4.8 0.00 8.15 0.00 90 1015.0
20260510121835 20 30 0.0 4.8 0.00 8.15 0.00 90 1015.0
20260510121721 20 30 1.6 4.8 0.00 8.15 0.00 90 1015.0
20260510121637 20 30 1.6 4.8 0.00 8.15 0.00 90 1015.0
20260510121539 20 28 1.6 4.8 0.00 8.15 0.00 90 1014.9
20260510121429 20 28 1.6 4.8 0.00 8.15 0.00 90 1014.9
20260510121336 20 27 1.6 4.8 0.00 8.15 0.00 90 1014.8
20260510121223 20 27 1.6 3.2 0.00 8.15 0.00 90 1014.8
20260510121146 20 27 1.6 3.2 0.00 8.15 0.00 90 1014.8
20260510121023 20 28 1.6 4.8 0.00 8.15 0.00 90 1014.8
20260510120933 20 28 0.0 6.4 0.00 8.15 0.00 90 1014.8
20260510120847 20 28 0.0 6.4 0.00 8.84 0.00 90 1014.8
20260510120731 20 28 0.0 6.4 0.00 8.84 0.00 90 1014.8
20260510120650 20 28 1.6 6.4 0.00 8.84 0.00 90 1014.7
20260510120524 20 28 1.6 6.4 0.00 8.84 0.00 90 1014.8
20260510120438 20 26 0.0 6.4 0.00 8.84 0.00 90 1014.7
20260510120327 20 26 1.6 6.4 0.00 8.84 0.00 90 1014.7
20260510120224 20 26 1.6 6.4 0.00 8.84 0.00 90 1014.7
20260510120137 20 26 1.6 6.4 0.00 8.84 0.00 90 1014.7
20260510120030 20 25 0.0 3.2 0.00 8.84 0.00 90 1014.7
20260510115944 20 25 0.0 3.2 0.00 8.84 0.00 90 1014.6
20260510115835 20 25 0.0 3.2 0.00 8.84 0.00 90 1014.5
20260510115721 20 25 0.0 3.2 0.00 8.84 0.00 90 1014.6
20260510115645 20 25 0.0 3.2 0.00 8.84 0.00 90 1014.5
20260510115521 20 25 0.0 3.2 0.00 8.84 0.00 90 1014.5
20260510115426 20 25 0.0 3.2 0.00 8.84 0.00 90 1014.4
20260510115340 20 25 0.0 3.2 0.00 8.84 0.00 90 1014.4
20260510115223 20 25 0.0 3.2 0.00 8.84 0.00 90 1014.4
20260510115147 20 25 0.0 3.2 0.00 8.84 0.00 90 1014.4
20260510115022 20 25 1.6 3.2 0.00 8.84 0.00 90 1014.4
20260510114935 20 25 0.0 3.2 0.00 8.84 0.00 90 1014.3
20260510114823 20 25 0.0 1.6 0.00 8.84 0.00 90 1014.3
20260510114724 20 25 0.0 1.6 0.00 8.84 0.00 90 1014.3
20260510114658 20 25 0.0 1.6 0.00 8.84 0.00 90 1014.3
20260510114532 20 25 0.0 1.6 0.00 8.84 0.00 90 1014.3
20260510114425 20 25 0.0 3.2 0.00 8.84 0.00 90 1014.3
20260510114332 20 25 0.0 3.2 0.00 8.84 0.00 90 1014.2
20260510114227 20 25 0.0 3.2 0.00 8.84 0.00 90 1014.2
20260510114138 20 25 0.0 3.2 0.00 8.84 0.00 90 1014.2
20260510114037 20 25 0.0 3.2 0.00 8.84 0.00 90 1014.2
20260510113923 20 25 0.0 3.2 0.00 8.84 0.00 90 1014.3
20260510113836 20 25 0.0 3.2 0.00 8.84 0.00 90 1014.2
20260510113721 20 25 0.0 6.4 0.00 8.84 0.00 90 1014.2
20260510113637 20 25 0.0 6.4 0.00 8.84 0.00 90 1014.2
20260510113524 20 25 0.0 6.4 0.00 8.84 0.00 90 1014.2
20260510113431 20 25 0.0 6.4 0.00 8.84 0.00 90 1014.2
20260510113339 20 25 0.0 6.4 0.00 8.84 0.00 90 1014.1
20260510113224 20 25 0.0 6.4 0.00 8.84 0.00 90 1014.1
20260510113147 20 25 0.0 6.4 0.00 8.84 0.00 90 1014.1
20260510113027 20 25 1.6 6.4 0.00 8.84 0.00 90 1014.1
20260510112934 20 25 1.6 6.4 0.00 8.84 0.00 90 1014.0
20260510112821 20 25 1.6 6.4 0.00 8.84 0.00 90 1014.0
20260510112733 20 24 1.6 4.8 0.00 8.84 0.00 90 1014.0
20260510112651 19 24 1.6 4.8 0.00 8.84 0.00 90 1014.0
20260510112524 20 24 0.0 4.8 0.00 8.84 0.00 90 1014.0
20260510112443 20 23 0.0 4.8 0.00 8.84 0.00 90 1014.0
20260510112329 20 23 1.6 4.8 0.00 8.84 0.00 90 1014.0
20260510112225 20 23 1.6 4.8 0.00 8.84 0.00 90 1014.0
20260510112138 20 23 1.6 4.8 0.00 8.84 0.00 90 1013.9
20260510112035 20 23 0.0 1.6 0.00 8.84 0.00 90 1013.9
20260510111923 20 23 0.0 1.6 0.00 8.84 0.00 90 1013.9
20260510111837 20 23 0.0 1.6 0.00 8.84 0.00 90 1013.8
20260510111723 19 23 0.0 3.2 0.00 8.84 0.00 90 1013.7
20260510111648 20 23 0.0 3.2 0.00 8.84 0.00 90 1013.8
20260510111544 19 23 0.0 3.2 0.00 8.84 0.00 90 1013.7
20260510111428 20 23 0.0 3.2 0.00 8.84 0.00 90 1013.7
20260510111347 20 23 0.0 4.8 0.00 8.84 0.00 90 1013.7
20260510111232 20 23 0.0 4.8 0.00 8.84 0.00 90 1013.7
20260510111149 19 23 0.0 4.8 0.00 8.84 0.00 90 1013.6
20260510111025 20 23 0.0 4.8 0.00 8.84 0.00 90 1013.6
20260510110938 20 23 0.0 4.8 0.00 8.84 0.00 90 1013.6
20260510110829 20 22 0.0 4.8 0.00 8.84 0.00 90 1013.5
20260510110726 20 22 0.0 4.8 0.00 8.84 0.00 90 1013.5
20260510110637 20 22 1.6 4.8 0.00 8.84 0.00 90 1013.5
20260510110551 20 21 1.6 4.8 0.00 8.84 0.00 90 1013.5
20260510110444 20 20 1.6 4.8 0.00 8.84 0.00 90 1013.5
20260510110329 20 20 0.0 4.8 0.00 8.84 0.00 90 1013.4
20260510110302 20 20 1.6 4.8 0.00 8.84 0.00 90 1013.4
20260510110141 20 20 1.6 4.8 0.00 8.84 0.00 90 1013.4
20260510110044 20 20 1.6 4.8 0.00 8.84 0.00 90 1013.4
20260510105931 20 20 1.6 4.8 0.00 8.84 0.00 90 1013.3
20260510105837 20 20 1.6 4.8 0.00 8.84 0.00 90 1013.3
20260510105752 20 20 1.6 4.8 0.00 8.84 0.00 90 1013.3
20260510105709 20 20 0.0 4.8 0.00 8.84 0.00 90 1013.3
20260510105534 20 20 0.0 1.6 0.00 8.84 0.00 90 1013.3
20260510105441 20 20 0.0 1.6 0.00 8.84 0.00 90 1013.3
20260510105328 20 20 0.0 1.6 0.00 8.84 0.00 91 1013.3
20260510105225 20 20 0.0 3.2 0.00 8.84 0.00 90 1013.3
20260510105137 20 20 0.0 3.2 0.00 8.84 0.00 90 1013.3
20260510105041 20 20 0.0 3.2 0.00 8.84 0.00 91 1013.3
20260510104930 20 20 0.0 3.2 0.00 8.84 0.00 90 1013.3
20260510104837 20 20 0.0 3.2 0.00 8.84 0.00 90 1013.3
20260510104742 20 20 0.0 3.2 0.00 8.84 0.00 90 1013.2
20260510104647 20 20 0.0 3.2 0.00 8.84 0.00 90 1013.2
20260510104521 20 20 0.0 3.2 0.00 8.84 0.00 91 1013.2
20260510104435 20 20 0.0 3.2 0.00 8.84 0.00 91 1013.2
20260510104326 20 20 0.0 3.2 0.00 8.84 0.00 91 1013.2
20260510104224 20 20 0.0 3.2 0.00 8.84 0.00 91 1013.1
20260510104135 20 20 0.0 3.2 0.00 8.84 0.00 90 1013.1
20260510104031 20 20 0.0 3.2 0.00 8.84 0.00 91 1013.1
20260510103937 20 20 0.0 0.0 0.00 8.84 0.00 91 1013.1
20260510103828 20 20 0.0 0.0 0.00 8.84 0.00 91 1013.0
20260510103751 20 20 0.0 0.0 0.00 8.84 0.00 90 1013.0
20260510103705 20 20 0.0 0.0 0.00 8.84 0.00 90 1013.0
20260510103539 20 20 0.0 3.2 0.00 8.84 0.00 91 1013.0
20260510103422 20 20 0.0 3.2 0.00 8.84 0.00 91 1013.0
20260510103357 20 20 0.0 3.2 0.00 8.84 0.00 90 1013.0
20260510103222 20 20 0.0 3.2 0.00 8.84 0.00 91 1013.0
20260510103151 20 20 0.0 3.2 0.00 8.84 0.00 90 1013.0
20260510103025 20 20 0.0 3.2 0.00 8.84 0.00 90 1013.1
20260510102939 20 20 0.0 3.2 0.00 8.84 0.00 91 1013.1
20260510102826 20 20 0.0 3.2 0.00 8.84 0.00 90 1013.1
20260510102722 20 20 0.0 3.2 0.00 8.84 0.00 90 1013.0
20260510102631 20 20 0.0 3.2 0.00 8.84 0.00 90 1013.0
20260510102532 20 20 0.0 3.2 0.00 8.84 0.00 91 1013.0
20260510102438 20 20 0.0 3.2 0.00 8.84 0.00 90 1013.0
20260510102326 20 20 0.0 3.2 0.00 8.84 0.00 90 1013.0
20260510102221 20 20 0.0 1.6 0.00 8.84 0.00 90 1013.0
20260510102133 20 20 0.0 1.6 0.00 8.84 0.00 90 1013.0
20260510102030 20 20 0.0 1.6 0.00 8.84 0.00 90 1012.9
20260510101944 20 20 0.0 1.6 0.00 8.84 0.00 91 1013.0
20260510101832 20 20 0.0 4.8 0.00 8.84 0.00 90 1012.9
20260510101729 20 20 0.0 4.8 0.00 8.84 0.00 91 1012.9
20260510101642 20 20 0.0 4.8 0.00 8.84 0.00 91 1012.9
20260510101522 20 20 0.0 4.8 0.00 8.84 0.00 91 1013.0
20260510101429 20 20 0.0 4.8 0.00 8.84 0.00 91 1012.9
20260510101335 20 20 0.0 4.8 0.00 8.84 0.00 91 1012.9
20260510101222 20 20 0.0 4.8 0.00 8.84 0.00 91 1012.9
20260510101145 20 20 0.0 4.8 0.00 8.84 0.00 91 1012.9
20260510101024 20 20 0.0 4.8 0.00 8.84 0.00 91 1012.8
20260510100938 20 20 0.0 4.8 0.00 8.84 0.00 91 1012.8
20260510100824 20 20 0.0 3.2 0.00 8.84 0.00 91 1012.8
20260510100729 20 20 0.0 3.2 0.00 8.84 0.00 91 1012.8
20260510100713 20 20 1.6 3.2 0.00 8.84 0.00 91 1012.8
20260510100528 20 20 1.6 3.2 0.00 8.84 0.00 91 1012.8
20260510100437 20 20 0.0 3.2 0.00 8.84 0.00 91 1012.7
20260510100351 20 20 0.0 3.2 0.00 8.84 0.00 91 1012.8
20260510100227 20 20 0.0 3.2 0.00 8.84 0.00 91 1012.7
20260510100133 20 20 0.0 3.2 0.00 8.84 0.00 91 1012.7
20260510100054 20 20 0.0 3.2 0.00 8.84 0.00 91 1012.7
20260510095946 20 20 0.0 3.2 0.00 8.84 0.00 91 1012.7
20260510095837 20 20 0.0 3.2 0.00 8.84 0.00 91 1012.7
20260510095723 20 20 0.0 3.2 0.00 8.84 0.00 91 1012.7
20260510095639 20 20 0.0 3.2 0.00 8.84 0.00 91 1012.7
20260510095540 20 20 0.0 3.2 0.00 8.84 0.00 91 1012.7
20260510095446 20 20 0.0 3.2 0.00 8.84 0.00 91 1012.7
20260510095332 20 20 0.0 3.2 0.00 8.84 0.00 91 1012.7
20260510095222 20 20 0.0 3.2 0.00 8.84 0.00 91 1012.7
20260510095144 20 20 1.6 3.2 0.00 8.84 0.00 91 1012.7
20260510095020 20 20 1.6 3.2 0.00 8.84 0.00 91 1012.7
20260510094927 20 20 0.0 3.2 0.00 8.84 0.00 91 1012.6
20260510094841 20 20 0.0 1.6 0.00 8.84 0.00 91 1012.6
20260510094721 20 20 0.0 1.6 0.00 8.84 0.00 91 1012.6
20260510094654 20 20 0.0 1.6 0.00 8.84 0.00 91 1012.6
20260510094549 20 20 0.0 1.6 0.00 8.84 0.00 91 1012.5
20260510094435 20 20 0.0 1.6 0.00 8.84 0.00 91 1012.5
20260510094322 20 20 0.0 1.6 0.00 8.84 0.00 91 1012.5
20260510094245 20 20 0.0 1.6 0.00 8.84 0.00 91 1012.5
20260510094156 20 20 0.0 3.2 0.00 8.84 0.00 91 1012.5
20260510094034 20 20 0.0 3.2 0.00 8.84 0.00 91 1012.4
20260510093920 20 20 0.0 3.2 0.00 8.84 0.00 91 1012.5
20260510093834 20 20 0.0 3.2 0.00 8.84 0.00 91 1012.5
20260510093730 20 20 0.0 3.2 0.00 8.84 0.00 91 1012.4
20260510093642 20 20 0.0 3.2 0.00 8.84 0.00 91 1012.5
20260510093535 20 20 0.0 3.2 0.00 8.84 0.00 91 1012.4
20260510093424 20 20 0.0 3.2 0.00 8.84 0.00 91 1012.4
20260510093358 20 20 0.0 3.2 0.00 8.84 0.00 91 1012.4
20260510093223 20 20 0.0 3.2 0.00 8.84 0.00 91 1012.5
20260510093148 20 20 0.0 1.6 0.00 8.84 0.00 91 1012.5
20260510093043 20 20 0.0 0.0 0.00 8.84 0.00 90 1012.5
20260510092937 20 20 0.0 0.0 0.00 8.84 0.00 90 1012.5
20260510092827 20 20 0.0 0.0 0.00 8.84 0.00 91 1012.5
20260510092745 20 20 0.0 0.0 0.00 8.84 0.00 91 1012.5
20260510092635 20 20 0.0 0.0 0.00 8.84 0.00 91 1012.5
20260510092538 20 20 0.0 0.0 0.00 8.84 0.00 91 1012.5
20260510092426 20 20 0.0 0.0 0.00 8.84 0.00 90 1012.5
20260510092352 20 20 0.0 0.0 0.00 8.84 0.00 91 1012.5
20260510092222 20 20 0.0 0.0 0.00 8.84 0.00 91 1012.5
20260510092145 20 20 0.0 0.0 0.00 8.84 0.00 91 1012.5
20260510092021 20 20 0.0 0.0 0.00 8.84 0.00 91 1012.5
20260510091926 20 20 0.0 0.0 0.00 8.84 0.00 90 1012.5
20260510091840 20 20 0.0 0.0 0.00 8.84 0.00 90 1012.5
20260510091721 20 20 0.0 1.6 0.00 8.84 0.00 90 1012.5
20260510091647 20 20 0.0 1.6 0.00 8.84 0.00 90 1012.5
20260510091522 20 20 0.0 1.6 0.00 8.84 0.00 90 1012.5
20260510091435 20 20 0.0 1.6 0.00 8.84 0.00 91 1012.5
20260510091322 20 20 0.0 1.6 0.00 8.84 0.00 91 1012.5
20260510091255 20 20 0.0 1.6 0.00 8.84 0.00 90 1012.4
20260510091135 20 20 0.0 1.6 0.00 8.84 0.00 90 1012.4
20260510091030 20 20 0.0 3.2 0.00 8.84 0.00 90 1012.4
20260510090944 20 20 0.0 3.2 0.00 8.84 0.00 90 1012.4
20260510090831 20 20 0.0 3.2 0.00 8.84 0.00 91 1012.4
20260510090729 20 20 0.0 3.2 0.00 8.84 0.00 90 1012.5
20260510090702 20 20 0.0 3.2 0.00 8.84 0.00 90 1012.5
20260510090520 20 20 0.0 3.2 0.00 8.84 0.00 90 1012.5
20260510090454 20 20 0.0 3.2 0.00 8.84 0.00 90 1012.5
20260510090320 20 20 0.0 3.2 0.00 8.84 0.00 90 1012.5
20260510090226 20 20 1.6 3.2 0.00 8.84 0.00 90 1012.5
20260510090150 20 20 1.6 3.2 0.00 8.84 0.00 91 1012.5
20260510090023 20 20 1.6 3.2 0.00 8.84 0.00 90 1012.4
20260510085940 20 20 1.6 3.2 0.00 8.84 0.00 91 1012.4
20260510085826 20 20 1.6 3.2 0.00 8.84 0.00 90 1012.5
20260510085733 20 20 0.0 3.2 0.00 8.84 0.00 90 1012.5
20260510085719 20 20 0.0 3.2 0.00 8.84 0.00 90 1012.5
20260510085533 20 20 0.0 3.2 0.00 8.84 0.00 90 1012.5
20260510085439 20 20 0.0 3.2 0.00 8.84 0.00 90 1012.4
20260510085336 20 20 0.0 3.2 0.00 8.84 0.00 90 1012.5
20260510085223 20 20 1.6 3.2 0.00 8.84 0.00 90 1012.4
20260510085208 20 20 1.6 3.2 0.00 8.84 0.00 90 1012.5
20260510085045 20 20 0.0 3.2 0.00 8.84 0.00 90 1012.4
20260510084930 20 20 0.0 3.2 0.00 8.84 0.00 90 1012.4
20260510084844 20 20 0.0 3.2 0.00 8.84 0.00 90 1012.5
20260510084726 20 20 0.0 4.8 0.00 8.84 0.00 90 1012.5
20260510084653 20 20 0.0 4.8 0.00 8.84 0.00 90 1012.5
20260510084526 20 20 0.0 4.8 0.00 8.84 0.00 90 1012.5
20260510084439 20 20 0.0 4.8 0.00 8.84 0.00 90 1012.5
20260510084345 20 20 0.0 4.8 0.00 8.84 0.00 90 1012.5
20260510084227 20 20 0.0 4.8 0.00 8.84 0.00 90 1012.5
20260510084136 20 20 0.0 4.8 0.00 8.84 0.00 90 1012.5
20260510084059 20 20 0.0 4.8 0.00 8.84 0.00 90 1012.5
20260510083952 20 20 1.6 4.8 0.00 8.84 0.00 90 1012.5
20260510083859 20 20 1.6 4.8 0.00 8.84 0.00 90 1012.5
20260510083724 20 20 0.0 3.2 0.00 8.84 0.00 90 1012.5
20260510083648 20 20 0.0 1.6 0.00 8.84 0.00 90 1012.5
20260510083525 20 20 0.0 3.2 0.00 8.84 0.00 90 1012.5
20260510083436 20 20 0.0 3.2 0.00 8.84 0.00 90 1012.5
20260510083321 20 20 0.0 3.2 0.00 8.84 0.00 90 1012.4
20260510083225 20 20 0.0 3.2 0.00 8.84 0.00 90 1012.5
20260510083159 20 20 0.0 3.2 0.00 8.84 0.00 90 1012.4
20260510083054 20 20 0.0 8.0 0.00 8.84 0.00 90 1012.5
20260510082920 20 20 0.0 8.0 0.00 8.84 0.00 90 1012.5
20260510082838 20 20 0.0 8.0 0.00 8.84 0.00 90 1012.5
20260510082744 20 20 1.6 8.0 0.00 8.84 0.00 90 1012.4
20260510082647 20 20 1.6 8.0 0.00 8.84 0.00 90 1012.4
20260510082521 20 20 1.6 8.0 0.00 8.84 0.00 90 1012.5
20260510082428 20 20 1.6 8.0 0.00 8.84 0.00 90 1012.4
20260510082341 20 20 1.6 8.0 0.00 8.84 0.00 90 1012.5
20260510082242 20 20 3.2 8.0 0.00 8.84 0.00 90 1012.5
20260510082154 20 20 1.6 8.0 0.00 8.84 0.00 90 1012.4
20260510082027 20 5 1.6 3.2 0.00 8.84 0.00 90 1012.5
20260510081941 20 5 0.0 3.2 0.00 8.84 0.00 90 1012.4
20260510081847 20 5 0.0 3.2 0.00 8.84 0.00 90 1012.5
20260510081724 20 5 0.0 4.8 0.00 8.84 0.00 90 1012.4
20260510081641 20 5 0.0 4.8 0.00 8.84 0.00 90 1012.4
20260510081537 20 5 0.0 4.8 0.00 8.84 0.00 90 1012.4
20260510081422 20 5 0.0 4.8 0.00 8.84 0.00 90 1012.4
20260510081335 20 5 0.0 4.8 0.00 8.84 0.00 90 1012.4
20260510081223 20 5 0.0 4.8 0.00 8.84 0.00 90 1012.4
20260510081139 20 5 0.0 4.8 0.00 8.84 0.00 90 1012.4
20260510081019 20 360 1.6 4.8 0.00 8.84 0.00 90 1012.4
20260510080954 20 360 1.6 4.8 0.00 8.84 0.00 90 1012.4
20260510080819 20 360 1.6 4.8 0.00 8.86 0.00 90 1012.3
20260510080732 20 360 0.0 4.8 0.00 8.86 0.00 90 1012.3
20260510080649 20 360 1.6 4.8 0.00 8.86 0.00 90 1012.3
20260510080528 20 360 1.6 4.8 0.00 8.86 0.00 90 1012.3
20260510080442 20 360 0.0 4.8 0.00 8.86 0.00 90 1012.3
20260510080329 20 360 0.0 4.8 0.00 8.86 0.00 90 1012.3
20260510080227 20 360 1.6 4.8 0.00 8.86 0.00 90 1012.2
20260510080141 20 360 0.0 4.8 0.00 8.86 0.00 90 1012.2
20260510080032 20 360 1.6 4.8 0.00 8.86 0.00 90 1012.2
20260510075922 20 360 1.6 4.8 0.00 8.86 0.00 90 1012.2
20260510075829 20 360 0.0 3.2 0.00 8.86 0.00 90 1012.3
20260510075722 20 360 0.0 3.2 0.00 8.86 0.00 90 1012.3
20260510075638 20 360 0.0 3.2 0.00 8.86 0.00 90 1012.3
20260510075541 20 360 0.0 3.2 0.00 8.86 0.00 90 1012.3
20260510075431 20 360 0.0 3.2 0.00 8.86 0.00 90 1012.2
20260510075338 20 360 1.6 3.2 0.00 8.86 0.00 90 1012.3
20260510075223 20 360 1.6 3.2 0.00 8.86 0.00 90 1012.3
20260510075147 20 360 1.6 3.2 0.00 8.86 0.00 90 1012.3
20260510075023 20 360 1.6 3.2 0.00 8.86 0.00 90 1012.3
20260510074957 20 360 0.0 3.2 0.00 8.86 0.00 90 1012.3
20260510074826 20 360 0.0 1.6 0.00 8.86 0.00 90 1012.3
20260510074723 20 360 0.0 1.6 0.00 8.86 0.00 90 1012.4
20260510074636 20 360 0.0 1.6 0.00 8.86 0.00 90 1012.3
20260510074532 20 360 0.0 1.6 0.00 8.86 0.00 90 1012.4
20260510074439 20 360 0.0 1.6 0.00 8.86 0.00 90 1012.4
20260510074328 20 360 0.0 1.6 0.00 8.86 0.00 90 1012.4
20260510074241 20 360 0.0 1.6 0.00 8.86 0.00 91 1012.4
20260510074134 20 360 0.0 1.6 0.00 8.86 0.00 90 1012.4
20260510074037 20 360 0.0 1.6 0.00 8.86 0.00 90 1012.4
20260510073923 20 360 0.0 1.6 0.00 8.86 0.00 90 1012.3
20260510073830 20 360 0.0 1.6 0.00 8.86 0.00 90 1012.4
20260510073721 20 360 0.0 4.8 0.00 8.86 0.00 90 1012.3
20260510073643 20 360 0.0 4.8 0.00 8.86 0.00 90 1012.4
20260510073520 20 360 0.0 4.8 0.00 8.86 0.00 90 1012.4
20260510073425 20 360 0.0 4.8 0.00 8.86 0.00 90 1012.4
20260510073340 20 360 0.0 4.8 0.00 8.86 0.00 90 1012.4
20260510073241 20 360 0.0 4.8 0.00 8.86 0.00 90 1012.4
20260510073152 20 360 0.0 4.8 0.00 8.86 0.00 91 1012.4
20260510073028 20 360 1.6 4.8 0.00 8.86 0.00 90 1012.4
20260510072933 20 360 1.6 4.8 0.00 8.86 0.00 91 1012.5
20260510072846 20 360 1.6 4.8 0.00 8.86 0.00 90 1012.5
20260510072742 20 360 0.0 3.2 0.00 8.86 0.00 91 1012.5
20260510072654 20 360 0.0 3.2 0.00 8.86 0.00 91 1012.5
20260510072533 20 360 0.0 3.2 0.00 8.86 0.00 90 1012.5
20260510072420 20 360 0.0 3.2 0.00 8.86 0.00 90 1012.5
20260510072328 20 360 1.6 3.2 0.00 8.86 0.00 90 1012.5
20260510072225 20 360 0.0 3.2 0.00 8.86 0.00 90 1012.4
20260510072157 20 360 0.0 3.2 0.00 8.86 0.00 90 1012.4
20260510072038 20 360 0.0 3.2 0.00 8.86 0.00 90 1012.4
20260510071928 20 360 1.6 3.2 0.00 8.86 0.00 90 1012.3
20260510071836 20 360 1.6 4.8 0.00 8.86 0.00 90 1012.4
20260510071722 20 360 1.6 4.8 0.00 8.86 0.00 91 1012.3
20260510071646 20 360 1.6 4.8 0.00 8.86 0.00 91 1012.3
20260510071521 20 360 0.0 4.8 0.00 8.86 0.00 91 1012.3
20260510071432 20 360 0.0 4.8 0.00 8.86 0.00 90 1012.3
20260510071320 20 360 0.0 4.8 0.00 8.86 0.00 90 1012.3
20260510071233 20 360 0.0 4.8 0.00 8.86 0.00 90 1012.3
20260510071131 20 360 1.6 4.8 0.00 8.86 0.00 91 1012.3
20260510071024 20 360 1.6 4.8 0.00 8.86 0.00 90 1012.3
20260510070923 20 360 1.6 4.8 0.00 8.86 0.00 91 1012.3
20260510070827 20 360 0.0 4.8 0.00 8.86 0.00 91 1012.3
20260510070722 20 360 1.6 4.8 0.00 8.86 0.00 90 1012.3
20260510070634 20 360 1.6 4.8 0.00 8.86 0.00 90 1012.3
20260510070531 20 360 0.0 4.8 0.00 8.86 0.00 90 1012.3
20260510070421 20 360 0.0 3.2 0.00 8.86 0.00 91 1012.3
20260510070355 20 360 0.0 3.2 0.00 8.86 0.00 90 1012.3
20260510070221 20 360 0.0 3.2 0.00 8.86 0.00 90 1012.3
20260510070145 20 360 1.6 3.2 0.00 8.86 0.00 90 1012.3
20260510070041 20 360 0.0 3.2 0.00 8.86 0.00 91 1012.3
20260510065925 20 360 0.0 3.2 0.00 8.86 0.00 91 1012.3
20260510065837 20 360 0.0 3.2 0.00 8.86 0.00 90 1012.3
20260510065719 20 360 0.0 3.2 0.00 8.86 0.00 90 1012.3
20260510065651 20 360 0.0 3.2 0.00 8.86 0.00 90 1012.3
20260510065549 20 360 0.0 3.2 0.00 8.86 0.00 90 1012.3
20260510065435 20 360 0.0 3.2 0.00 8.86 0.00 91 1012.3
20260510065330 20 360 0.0 3.2 0.00 8.86 0.00 90 1012.3
20260510065248 20 360 0.0 3.2 0.00 8.86 0.00 90 1012.3
20260510065144 20 360 0.0 3.2 0.00 8.86 0.00 90 1012.3
20260510065039 20 360 0.0 3.2 0.00 8.86 0.00 90 1012.2
20260510064954 20 360 0.0 1.6 0.00 8.86 0.00 90 1012.2
20260510064839 20 360 0.0 1.6 0.00 8.86 0.00 90 1012.2
20260510064725 20 360 0.0 1.6 0.00 8.86 0.00 91 1012.3
20260510064633 20 360 0.0 1.6 0.00 8.86 0.00 90 1012.2
20260510064529 20 360 0.0 1.6 0.00 8.86 0.00 90 1012.3
20260510064436 20 360 0.0 1.6 0.00 8.86 0.00 91 1012.3
20260510064322 20 360 0.0 1.6 0.00 8.86 0.00 90 1012.3
20260510064247 20 360 0.0 3.2 0.00 8.86 0.00 90 1012.3
20260510064132 20 360 0.0 3.2 0.00 8.86 0.00 90 1012.3
20260510064037 20 360 0.0 3.2 0.00 8.86 0.00 91 1012.3
20260510063924 20 360 0.0 3.2 0.00 8.86 0.00 90 1012.3
20260510063831 20 360 0.0 3.2 0.00 8.86 0.00 90 1012.3
20260510063719 20 360 0.0 3.2 0.00 8.86 0.00 91 1012.2
20260510063641 20 360 0.0 3.2 0.00 8.86 0.00 90 1012.2
20260510063522 20 360 0.0 3.2 0.00 8.86 0.00 90 1012.3
20260510063428 20 360 0.0 4.8 0.00 8.86 0.00 90 1012.3
20260510063341 20 360 0.0 4.8 0.00 8.86 0.00 90 1012.3
20260510063227 20 360 0.0 4.8 0.00 8.86 0.00 90 1012.3
20260510063152 20 360 0.0 4.8 0.00 8.86 0.00 90 1012.3
20260510063028 20 360 0.0 4.8 0.00 8.86 0.00 91 1012.3
20260510062938 20 360 0.0 4.8 0.00 8.86 0.00 90 1012.3
20260510062825 20 360 0.0 4.8 0.00 8.86 0.00 91 1012.3
20260510062721 20 360 1.6 4.8 0.00 8.86 0.00 90 1012.2
20260510062633 20 360 1.6 4.8 0.00 8.86 0.00 90 1012.2
20260510062528 20 360 1.6 4.8 0.00 8.86 0.00 90 1012.2
20260510062441 20 360 1.6 4.8 0.00 8.86 0.00 90 1012.2
20260510062332 20 360 0.0 4.8 0.00 8.86 0.00 90 1012.1
20260510062226 20 360 0.0 3.2 0.00 8.86 0.00 90 1012.2
20260510062131 20 360 0.0 3.2 0.00 8.86 0.00 90 1012.2
20260510062034 20 360 0.0 3.2 0.00 8.86 0.00 90 1012.2
20260510061920 20 360 0.0 3.2 0.00 8.86 0.00 90 1012.2
20260510061831 20 360 1.6 3.2 0.00 8.86 0.00 90 1012.2
20260510061728 20 360 1.6 3.2 0.00 8.86 0.00 90 1012.2
20260510061639 20 360 0.0 1.6 0.00 8.86 0.00 90 1012.2
20260510061541 20 360 0.0 1.6 0.00 8.86 0.00 90 1012.2
20260510061427 20 360 0.0 1.6 0.00 8.86 0.00 90 1012.2
20260510061334 20 360 0.0 1.6 0.00 8.86 0.00 90 1012.2
20260510061245 20 360 0.0 1.6 0.00 8.86 0.00 90 1012.2
20260510061147 20 360 0.0 1.6 0.00 8.86 0.00 90 1012.2
20260510061022 20 360 0.0 1.6 0.00 8.86 0.00 90 1012.3
20260510060929 20 360 0.0 1.6 0.00 8.86 0.00 90 1012.3
20260510060843 20 360 0.0 1.6 0.00 8.86 0.00 90 1012.3
20260510060723 20 360 0.0 1.6 0.00 8.86 0.00 90 1012.3
20260510060656 20 360 0.0 1.6 0.00 8.86 0.00 90 1012.3
20260510060530 20 360 0.0 1.6 0.00 8.86 0.00 90 1012.3
20260510060444 20 360 0.0 1.6 0.00 8.86 0.00 90 1012.3
20260510060331 20 360 0.0 1.6 0.00 8.86 0.00 90 1012.4
20260510060225 20 360 0.0 1.6 0.00 8.86 0.00 90 1012.4
20260510060141 20 360 0.0 1.6 0.00 8.86 0.00 90 1012.4
20260510060058 20 360 0.0 1.6 0.00 8.86 0.00 90 1012.4
20260510055923 20 360 0.0 4.8 0.00 8.86 0.00 90 1012.3
20260510055837 20 360 0.0 4.8 0.00 8.86 0.00 90 1012.3
20260510055723 20 360 0.0 4.8 0.00 8.86 0.00 90 1012.4
20260510055648 20 360 0.0 4.8 0.00 8.86 0.00 90 1012.3
20260510055527 20 360 0.0 4.8 0.00 8.86 0.00 90 1012.3
20260510055431 20 360 0.0 4.8 0.00 8.86 0.00 90 1012.3
20260510055345 20 360 0.0 4.8 0.00 8.86 0.00 90 1012.3
20260510055231 20 360 0.0 4.8 0.00 8.86 0.00 90 1012.3
20260510055148 20 360 0.0 4.8 0.00 8.86 0.00 90 1012.3
20260510055049 20 360 0.0 4.8 0.00 8.86 0.00 90 1012.3
20260510054954 20 360 0.0 4.8 0.00 8.86 0.00 90 1012.3
20260510054850 20 360 0.0 4.8 0.00 8.86 0.00 90 1012.3
20260510054728 20 360 0.0 4.8 0.00 8.86 0.00 90 1012.4
20260510054640 20 360 0.0 4.8 0.00 8.86 0.00 90 1012.3
20260510054534 20 360 0.0 4.8 0.00 8.86 0.00 90 1012.3
20260510054422 20 360 1.6 4.8 0.00 8.86 0.00 90 1012.3
20260510054330 20 360 1.6 4.8 0.00 8.86 0.00 90 1012.3
20260510054244 20 360 1.6 4.8 0.00 8.86 0.00 90 1012.3
20260510054209 20 360 1.6 4.8 0.00 8.86 0.00 90 1012.3
20260510054024 20 360 1.6 4.8 0.00 8.86 0.00 90 1012.3
20260510053930 20 360 1.6 4.8 0.00 8.86 0.00 90 1012.3
20260510053845 20 360 1.6 4.8 0.00 8.86 0.00 90 1012.3
20260510053749 20 360 0.0 3.2 0.00 8.86 0.00 90 1012.3
20260510053654 20 360 0.0 3.2 0.00 8.86 0.00 90 1012.4
20260510053549 20 360 0.0 3.2 0.00 8.86 0.00 90 1012.4
20260510053442 20 360 0.0 3.2 0.00 8.86 0.00 90 1012.5
20260510053330 20 360 0.0 3.2 0.00 8.86 0.00 90 1012.4
20260510053248 20 360 0.0 3.2 0.00 8.86 0.00 90 1012.4
20260510053138 20 360 0.0 3.2 0.00 8.86 0.00 90 1012.4
20260510053034 20 360 0.0 3.2 0.00 8.86 0.00 90 1012.4
20260510052923 20 360 0.0 3.2 0.00 8.86 0.00 90 1012.5
20260510052837 20 360 0.0 3.2 0.00 8.86 0.00 90 1012.4
20260510052722 20 360 0.0 3.2 0.00 8.86 0.00 90 1012.4
20260510052647 20 360 0.0 3.2 0.00 8.86 0.00 90 1012.4
20260510052542 20 360 0.0 3.2 0.00 8.86 0.00 90 1012.4
20260510052456 20 360 0.0 3.2 0.00 8.86 0.00 90 1012.3
20260510052325 20 360 0.0 3.2 0.00 8.86 0.00 90 1012.3
20260510052221 20 360 0.0 3.2 0.00 8.86 0.00 90 1012.2
20260510052134 20 360 0.0 3.2 0.00 8.86 0.00 90 1012.2
20260510052030 20 360 0.0 3.2 0.00 8.86 0.00 90 1012.2
20260510051936 20 360 0.0 3.2 0.00 8.86 0.00 90 1012.2
20260510051826 20 360 0.0 3.2 0.00 8.86 0.00 90 1012.2
20260510051723 20 360 0.0 3.2 0.00 8.86 0.00 90 1012.3
20260510051635 20 360 0.0 3.2 0.00 8.86 0.00 90 1012.3
20260510051538 20 360 0.0 3.2 0.00 8.86 0.00 90 1012.3
20260510051423 20 360 0.0 3.2 0.00 8.86 0.00 90 1012.3
20260510051335 20 360 1.6 3.2 0.00 8.86 0.00 90 1012.4
20260510051226 20 360 0.0 3.2 0.00 8.86 0.00 90 1012.3
20260510051142 20 360 0.0 3.2 0.00 8.86 0.00 90 1012.4
20260510051022 20 360 0.0 1.6 0.00 8.86 0.00 90 1012.4
20260510050930 20 360 0.0 1.6 0.00 8.86 0.00 90 1012.4
20260510050836 20 360 1.6 3.2 0.00 8.97 8.86 90 1012.4
20260510050722 20 360 0.0 3.2 0.00 8.97 8.86 90 1012.4
20260510050630 20 360 0.0 3.2 0.00 8.97 8.86 90 1012.5
20260510050525 20 360 0.0 3.2 0.00 8.97 8.86 90 1012.5
20260510050439 20 360 0.0 3.2 0.00 8.97 8.86 90 1012.5
20260510050325 20 360 0.0 3.2 0.00 8.97 8.86 90 1012.6
20260510050222 20 360 0.0 3.2 0.00 8.97 8.86 90 1012.6
20260510050139 20 360 0.0 3.2 0.00 8.97 8.86 90 1012.6
20260510050053 20 360 0.0 4.8 0.00 8.97 8.86 90 1012.6
20260510045940 20 360 0.0 4.8 0.00 8.97 8.86 90 1012.7
20260510045827 20 360 0.0 4.8 0.00 8.97 8.86 90 1012.6
20260510045744 20 360 0.0 4.8 0.00 8.97 8.86 90 1012.7
20260510045636 20 360 0.0 4.8 0.00 8.97 8.86 90 1012.6
20260510045543 20 360 0.0 4.8 0.00 8.97 8.86 90 1012.6
20260510045431 20 360 1.6 4.8 0.00 8.97 8.86 90 1012.6
20260510045337 20 360 1.6 4.8 0.00 8.97 8.86 90 1012.5
20260510045225 20 360 1.6 4.8 0.00 8.97 8.86 90 1012.6
20260510045148 20 360 0.0 3.2 0.00 8.97 8.86 90 1012.5
20260510045024 20 360 0.0 6.4 0.00 8.97 8.86 90 1012.6
20260510044936 20 360 0.0 6.4 0.00 8.97 8.86 90 1012.7
20260510044824 20 360 1.6 6.4 0.00 8.97 8.86 90 1012.7
20260510044728 20 360 1.6 6.4 0.00 8.97 8.86 90 1012.7
20260510044633 20 360 1.6 6.4 0.00 8.97 8.86 90 1012.7
20260510044535 20 360 1.6 6.4 0.00 8.97 8.86 90 1012.7
20260510044426 20 360 0.0 6.4 0.00 8.97 8.86 90 1012.7
20260510044334 20 360 1.6 6.4 0.00 8.97 8.86 90 1012.6
20260510044242 20 360 1.6 6.4 0.00 8.97 8.86 90 1012.7
20260510044144 20 360 3.2 6.4 0.00 8.97 8.86 90 1012.7
20260510044019 20 360 3.2 6.4 0.00 8.97 8.86 90 1012.7
20260510043932 20 360 1.6 6.4 0.00 8.97 8.86 90 1012.8
20260510043823 20 360 1.6 6.4 0.00 8.97 8.86 90 1012.7
20260510043720 20 355 1.6 4.8 0.00 8.97 8.86 90 1012.8
20260510043632 20 355 1.6 4.8 0.00 8.97 8.86 90 1012.8
20260510043527 20 355 1.6 4.8 0.00 8.97 8.86 90 1012.8
20260510043440 20 355 1.6 6.4 0.00 8.97 8.86 90 1012.8
20260510043328 20 355 3.2 8.0 0.00 8.97 8.86 90 1012.8
20260510043249 20 360 1.6 8.0 0.00 8.97 8.86 90 1012.8
20260510043141 20 360 1.6 8.0 0.00 8.97 8.86 90 1012.7
20260510043037 20 360 1.6 8.0 0.00 8.97 8.86 90 1012.7
20260510042923 20 360 3.2 8.0 0.00 8.97 8.86 90 1012.6
20260510042858 20 360 3.2 8.0 0.00 8.97 8.86 90 1012.7
20260510042718 20 355 3.2 8.0 0.00 8.97 8.86 90 1012.6
20260510042630 20 355 3.2 8.0 0.00 8.97 8.86 90 1012.7
20260510042526 20 355 3.2 8.0 0.00 8.97 8.86 90 1012.7
20260510042433 20 355 1.6 8.0 0.00 8.97 8.86 90 1012.7
20260510042319 20 355 1.6 8.0 0.00 8.97 8.86 90 1012.7
20260510042222 20 355 3.2 8.0 0.00 8.97 8.86 90 1012.7
20260510042132 20 355 1.6 6.4 0.00 8.97 8.86 90 1012.7
20260510042035 20 355 1.6 6.4 0.00 8.97 8.86 90 1012.7
20260510041922 20 355 1.6 6.4 0.00 8.97 8.86 90 1012.7
20260510041829 20 355 1.6 6.4 0.00 8.97 8.86 90 1012.7
20260510041726 20 355 1.6 6.4 0.00 8.97 8.86 90 1012.7
20260510041637 20 355 1.6 6.4 0.00 8.97 8.86 90 1012.6
20260510041543 20 355 1.6 6.4 0.00 8.97 8.86 90 1012.6
20260510041430 20 355 1.6 6.4 0.00 8.97 8.86 90 1012.6
20260510041336 20 355 0.0 6.4 0.00 8.97 8.86 90 1012.5
20260510041222 20 355 0.0 6.4 0.03 8.97 8.86 90 1012.5
20260510041145 20 355 0.0 6.4 0.03 8.97 8.86 90 1012.4
20260510041025 20 355 1.6 6.4 0.03 8.97 8.86 90 1012.4
20260510040933 20 355 3.2 6.4 0.03 8.97 8.86 90 1012.4
20260510040821 20 355 1.6 6.4 0.03 11.20 8.86 90 1012.3
20260510040718 20 5 1.6 6.4 0.03 11.20 8.86 90 1012.3
20260510040630 20 44 1.6 6.4 0.03 11.20 8.86 90 1012.3
20260510040528 20 44 1.6 6.4 0.03 11.20 8.86 90 1012.3
20260510040442 20 44 1.6 4.8 0.03 11.20 8.86 90 1012.2
20260510040329 20 113 3.2 4.8 0.03 11.20 8.86 90 1012.2
20260510040226 20 144 1.6 4.8 0.03 11.20 8.86 90 1012.2
20260510040138 20 144 0.0 4.8 0.03 11.20 8.86 90 1012.1
20260510040055 20 144 0.0 4.8 0.03 11.20 8.86 90 1012.1
20260510035922 20 144 0.0 4.8 0.03 11.20 8.86 90 1012.1
20260510035837 20 144 0.0 4.8 0.03 11.20 8.86 90 1012.0
20260510035723 20 144 0.0 4.8 0.03 11.20 8.86 90 1012.0
20260510035639 20 144 1.6 4.8 0.03 11.20 8.86 90 1011.8
20260510035542 20 144 1.6 4.8 0.03 11.20 8.86 90 1011.8
20260510035449 20 172 0.0 3.2 0.03 11.20 8.86 90 1011.8
20260510035347 20 172 0.0 3.2 0.03 11.20 8.86 90 1011.8
20260510035243 20 172 0.0 3.2 0.03 11.20 8.86 90 1011.8
20260510035156 20 172 0.0 1.6 0.03 11.20 8.86 90 1011.8
20260510035037 20 172 0.0 1.6 0.03 11.20 8.86 90 1011.8
20260510034923 20 172 0.0 1.6 0.03 11.20 8.86 90 1011.9
20260510034830 20 172 0.0 0.0 0.03 11.20 8.86 90 1011.8
20260510034719 20 172 0.0 0.0 0.03 11.20 8.86 90 1011.8
20260510034642 20 172 0.0 0.0 0.03 11.20 8.86 90 1011.8
20260510034537 20 172 0.0 0.0 0.03 11.20 8.86 90 1011.8
20260510034423 20 172 0.0 0.0 0.03 11.20 8.86 90 1011.9
20260510034336 20 172 0.0 1.6 0.03 11.20 8.86 90 1011.9
20260510034221 20 172 0.0 3.2 0.03 11.20 8.86 90 1011.9
20260510034141 20 172 0.0 3.2 0.03 11.20 8.86 90 1011.9
20260510034044 20 172 0.0 3.2 0.03 11.20 8.86 90 1011.9
20260510033932 20 172 0.0 4.8 0.03 11.20 8.86 90 1011.8
20260510033820 20 172 0.0 4.8 0.03 11.20 8.86 90 1011.8
20260510033754 20 172 0.0 4.8 0.03 11.20 8.86 90 1011.8
20260510033634 20 172 0.0 4.8 0.03 11.20 8.86 90 1011.8
20260510033529 20 172 0.0 4.8 0.03 11.20 8.86 90 1011.8
20260510033443 20 172 0.0 4.8 0.03 11.20 8.86 90 1011.7
20260510033330 20 172 0.0 4.8 0.03 11.20 8.86 90 1011.7
20260510033227 20 172 1.6 4.8 0.03 11.20 8.86 90 1011.7
20260510033139 20 172 1.6 4.8 0.03 11.20 8.86 90 1011.7
20260510033018 20 172 1.6 4.8 0.03 11.20 8.86 90 1011.7
20260510032926 20 172 1.6 4.8 0.03 11.20 8.86 90 1011.7
20260510032839 20 172 1.6 4.8 0.03 11.20 8.86 90 1011.7
20260510032724 20 172 0.0 4.8 0.03 11.20 8.86 90 1011.8
20260510032708 20 172 0.0 4.8 0.05 11.20 8.86 90 1011.7
20260510032544 20 172 0.0 4.8 0.05 11.20 8.86 90 1011.8
20260510032444 20 172 0.0 4.8 0.05 11.20 8.86 90 1011.8
20260510032330 20 172 0.0 4.8 0.08 11.20 8.86 90 1011.7
20260510032227 20 172 0.0 4.8 0.08 11.20 8.86 90 1011.7
20260510032132 20 172 0.0 3.2 0.08 11.20 8.86 90 1011.7
20260510032034 20 172 0.0 3.2 0.08 11.20 8.86 90 1011.6
20260510031924 20 172 0.0 3.2 0.08 11.20 8.86 90 1011.6
20260510031831 20 172 0.0 3.2 0.08 11.20 8.86 90 1011.7
20260510031719 20 172 0.0 4.8 0.08 11.20 8.86 90 1011.7
20260510031642 20 172 0.0 4.8 0.08 11.20 8.86 90 1011.8
20260510031605 20 172 0.0 4.8 0.08 11.20 8.86 90 1011.8
20260510031431 20 172 0.0 4.8 0.08 11.20 8.86 90 1011.8
20260510031320 20 172 0.0 4.8 0.05 11.18 8.84 90 1011.7
20260510031226 20 171 0.0 4.8 0.05 11.18 8.84 90 1011.7
20260510031149 20 171 0.0 4.8 0.05 11.18 8.84 90 1011.7
20260510031026 20 171 0.0 4.8 0.05 11.18 8.84 90 1011.8
20260510030932 20 171 1.6 4.8 0.05 11.18 8.84 90 1011.8
20260510030827 20 171 1.6 4.8 0.05 11.18 8.84 90 1011.8
20260510030727 20 171 0.0 4.8 0.05 11.18 8.84 90 1011.9
20260510030632 20 171 0.0 4.8 0.05 11.18 8.84 90 1011.9
20260510030535 20 171 0.0 4.8 0.05 11.18 8.84 90 1011.9
20260510030421 20 171 1.6 4.8 0.05 11.18 8.84 90 1011.8
20260510030354 20 171 1.6 4.8 0.05 11.18 8.84 90 1011.9
20260510030224 20 171 0.0 4.8 0.05 11.18 8.84 90 1011.9
20260510030141 20 171 0.0 4.8 0.05 11.18 8.84 90 1011.8
20260510030044 20 171 0.0 4.8 0.05 11.18 8.84 90 1011.8
20260510025929 20 170 0.0 4.8 0.05 11.18 8.84 90 1011.8
20260510025837 20 170 1.6 4.8 0.05 11.18 8.84 90 1011.7
20260510025719 20 170 1.6 4.8 0.05 11.18 8.84 90 1011.7
20260510025630 20 170 1.6 4.8 0.05 11.18 8.84 90 1011.8
20260510025526 20 137 0.0 4.8 0.05 11.18 8.84 90 1011.8
20260510025439 20 136 0.0 4.8 0.05 11.18 8.84 90 1011.8
20260510025326 20 131 0.0 4.8 0.05 11.18 8.84 90 1011.8
20260510025224 20 127 1.6 4.8 0.05 11.18 8.84 90 1011.7
20260510025141 20 127 1.6 4.8 0.05 11.18 8.84 90 1011.7
20260510025037 20 127 1.6 4.8 0.05 11.18 8.84 90 1011.7
20260510024923 20 127 1.6 4.8 0.05 11.18 8.84 90 1011.7
20260510024837 20 127 1.6 4.8 0.05 11.18 8.84 90 1011.7
20260510024723 20 126 0.0 4.8 0.05 11.18 8.84 90 1011.7
20260510024641 20 126 0.0 4.8 0.05 11.18 8.84 90 1011.8
20260510024519 20 126 1.6 4.8 0.05 11.18 8.84 90 1011.8
20260510024432 20 126 1.6 4.8 0.05 11.18 8.84 90 1011.9
20260510024319 20 166 0.0 1.6 0.05 11.18 8.84 90 1012.0
20260510024225 20 166 0.0 1.6 0.05 11.18 8.84 90 1012.1
20260510024130 20 166 0.0 1.6 0.05 11.18 8.84 90 1012.1
20260510024028 20 166 0.0 1.6 0.05 11.18 8.84 90 1012.2
20260510023945 20 166 0.0 1.6 0.05 11.18 8.84 90 1012.2
20260510023824 20 166 0.0 1.6 0.05 11.18 8.84 90 1012.2
20260510023719 20 166 0.0 1.6 0.05 11.18 8.84 90 1012.2
20260510023655 20 166 0.0 3.2 0.05 11.18 8.84 90 1012.1
20260510023536 20 166 0.0 3.2 0.05 11.18 8.84 90 1012.2
20260510023426 20 166 0.0 3.2 0.05 11.18 8.84 90 1012.3
20260510023333 20 166 0.0 3.2 0.05 11.18 8.84 90 1012.4
20260510023220 20 166 0.0 3.2 0.05 11.18 8.84 90 1012.4
20260510023144 20 166 0.0 3.2 0.05 11.18 8.84 90 1012.5
20260510023019 20 166 0.0 3.2 0.05 11.18 8.84 90 1012.6
20260510022934 20 166 1.6 3.2 0.05 11.18 8.84 90 1012.6
20260510022823 20 166 1.6 3.2 0.05 11.18 8.84 90 1012.6
20260510022740 20 166 1.6 4.8 0.03 11.15 8.81 90 1012.6
20260510022631 20 166 0.0 1.6 0.03 11.15 8.81 90 1012.6
20260510022526 20 166 0.0 0.0 0.03 11.15 8.81 90 1012.5
20260510022440 20 166 0.0 0.0 0.00 11.13 8.79 90 1012.5
20260510022348 20 166 0.0 0.0 0.00 11.13 8.79 90 1012.5
20260510022219 20 166 0.0 0.0 0.00 11.13 8.79 90 1012.6
20260510022202 20 166 0.0 0.0 0.00 11.13 8.79 90 1012.7
20260510022103 20 166 0.0 0.0 0.00 11.13 8.79 90 1012.7
20260510021929 20 166 0.0 0.0 0.00 11.13 8.79 90 1012.6
20260510021856 20 166 0.0 1.6 0.00 11.13 8.79 90 1012.6
20260510021748 20 166 0.0 4.8 0.00 11.13 8.79 90 1012.6
20260510021711 20 166 0.0 4.8 0.00 11.13 8.79 90 1012.5
20260510021530 20 166 0.0 4.8 0.00 11.13 8.79 90 1012.4
20260510021437 20 166 0.0 4.8 0.00 11.13 8.79 90 1012.4
20260510021325 20 166 0.0 4.8 0.00 11.13 8.79 90 1012.3
20260510021223 20 166 0.0 4.8 0.00 11.13 8.79 90 1012.2
20260510021156 20 166 0.0 4.8 0.00 11.13 8.79 90 1012.1
20260510021036 20 166 1.6 4.8 0.00 11.13 8.79 90 1012.0
20260510020947 20 166 1.6 4.8 0.00 11.13 8.79 90 1011.9
20260510020840 20 166 1.6 3.2 0.00 11.13 8.79 90 1011.9
20260510020718 20 166 1.6 4.8 0.00 11.13 8.79 90 1011.9
20260510020644 20 166 0.0 4.8 0.00 11.13 8.79 90 1011.8
20260510020547 20 165 0.0 3.2 0.00 11.13 8.79 90 1011.8
20260510020434 20 165 0.0 3.2 0.00 11.13 8.79 90 1011.8
20260510020326 20 165 0.0 4.8 0.00 11.13 8.79 90 1011.9
20260510020223 20 165 0.0 4.8 0.00 11.13 8.79 90 1011.9
20260510020156 20 165 0.0 4.8 0.00 11.13 8.79 90 1011.9
20260510020058 20 165 0.0 4.8 0.00 11.13 8.79 90 1011.9
20260510015922 20 165 0.0 4.8 0.00 11.13 8.79 90 1011.9
20260510015828 20 165 0.0 4.8 0.00 11.13 8.79 90 1011.9
20260510015719 20 165 0.0 4.8 0.00 11.13 8.79 90 1011.9
20260510015705 20 165 1.6 4.8 0.00 11.13 8.79 90 1011.9
20260510015518 20 165 3.2 8.0 0.00 11.13 8.79 90 1011.9
20260510015452 20 165 1.6 8.0 0.00 11.13 8.79 90 1011.9
20260510015339 20 165 0.0 8.0 0.00 11.13 8.79 90 1011.8
20260510015222 20 165 0.0 8.0 0.00 11.13 8.79 90 1011.9
20260510015132 20 165 1.6 8.0 0.00 11.13 8.79 90 1011.9
20260510015035 20 165 1.6 8.0 0.00 11.13 8.79 90 1011.9
20260510014942 20 166 1.6 8.0 0.00 11.13 8.79 90 1011.8
20260510014835 20 166 1.6 8.0 0.00 11.13 8.79 90 1011.8
20260510014722 20 116 0.0 6.4 0.00 11.13 8.79 90 1011.8
20260510014639 20 116 1.6 6.4 0.00 11.13 8.79 90 1011.8
20260510014545 20 116 1.6 6.4 0.00 11.13 8.79 90 1011.8
20260510014451 20 111 3.2 6.4 0.00 11.13 8.79 90 1011.9
20260510014337 20 124 3.2 6.4 0.00 11.13 8.79 90 1011.9
20260510014224 20 122 1.6 6.4 0.00 11.13 8.79 90 1011.9
20260510014148 20 129 1.6 6.4 0.00 11.13 8.79 90 1011.9
20260510014024 20 136 1.6 6.4 0.00 11.13 8.79 90 1011.9
20260510013921 20 161 3.2 8.0 0.00 11.13 8.79 90 1011.9
20260510013828 20 155 3.2 8.0 0.00 11.13 8.79 90 1011.9
20260510013726 20 153 3.2 6.4 0.00 11.13 8.79 90 1011.9
20260510013637 20 107 3.2 4.8 0.00 11.13 8.79 90 1011.9
20260510013540 20 151 1.6 4.8 0.00 11.13 8.79 90 1011.9
20260510013447 20 150 3.2 4.8 0.00 11.13 8.79 90 1012.0
20260510013337 20 150 1.6 4.8 0.00 11.13 8.79 90 1012.1
20260510013224 20 151 1.6 4.8 0.00 11.13 8.79 90 1012.1
20260510013146 20 151 1.6 4.8 0.00 11.13 8.79 90 1012.2
20260510013040 20 150 1.6 4.8 0.00 11.13 8.79 90 1012.2
20260510012933 20 151 1.6 4.8 0.00 11.13 8.79 90 1012.1
20260510012821 20 150 1.6 4.8 0.00 11.13 8.79 90 1012.1
20260510012722 20 150 1.6 4.8 0.00 11.13 8.79 90 1012.2
20260510012635 20 151 1.6 4.8 0.00 11.13 8.79 90 1012.2
20260510012527 20 148 0.0 4.8 0.00 11.13 8.79 90 1012.3
20260510012435 20 148 0.0 4.8 0.00 11.13 8.79 90 1012.3
20260510012321 20 148 1.6 4.8 0.00 11.13 8.79 90 1012.3
20260510012220 20 148 1.6 4.8 0.00 11.13 8.79 90 1012.3
20260510012135 20 148 1.6 4.8 0.00 11.13 8.79 90 1012.3
20260510012059 20 148 1.6 4.8 0.00 11.13 8.79 90 1012.3
20260510011926 20 148 0.0 3.2 0.00 11.13 8.79 90 1012.3
20260510011833 20 148 0.0 1.6 0.00 11.13 8.79 90 1012.2
20260510011719 20 148 0.0 1.6 0.00 11.13 8.79 90 1012.3
20260510011647 20 148 0.0 1.6 0.00 11.13 8.79 90 1012.3
20260510011523 20 148 0.0 1.6 0.00 11.13 8.79 90 1012.3
20260510011429 20 148 0.0 1.6 0.00 11.13 8.79 90 1012.2
20260510011342 20 148 0.0 1.6 0.00 11.13 8.79 90 1012.2
20260510011220 20 148 0.0 1.6 0.00 11.13 8.79 90 1012.2
20260510011130 20 148 0.0 1.6 0.00 11.13 8.79 90 1012.1
20260510011032 20 148 0.0 1.6 0.00 11.13 8.79 90 1012.2
20260510010940 20 148 0.0 3.2 0.00 11.13 8.79 90 1012.2
20260510010854 20 148 0.0 3.2 0.00 11.15 8.79 90 1012.3
20260510010719 20 148 0.0 3.2 0.00 11.15 8.79 90 1012.4
20260510010644 20 148 0.0 3.2 0.00 11.15 8.79 90 1012.5
20260510010523 20 148 0.0 3.2 0.00 11.15 8.79 90 1012.5
20260510010450 20 148 0.0 3.2 0.00 11.15 8.79 90 1012.5
20260510010343 20 148 0.0 3.2 0.00 11.15 8.79 90 1012.5
20260510010240 20 148 1.6 3.2 0.00 11.15 8.79 90 1012.5
20260510010131 20 148 1.6 3.2 0.00 11.15 8.79 90 1012.5
20260510010045 20 148 0.0 3.2 0.00 11.15 8.79 90 1012.5
20260510005937 20 148 0.0 3.2 0.00 11.15 8.79 90 1012.5
20260510005827 20 148 0.0 3.2 0.00 11.15 8.79 90 1012.6
20260510005745 20 148 0.0 3.2 0.00 11.15 8.79 90 1012.5
20260510005637 20 148 0.0 3.2 0.00 11.15 8.79 90 1012.5
20260510005539 20 148 0.0 1.6 0.00 11.15 8.79 90 1012.5
20260510005427 20 148 0.0 1.6 0.00 11.15 8.79 90 1012.5
20260510005320 20 148 0.0 1.6 0.00 11.15 8.79 90 1012.5
20260510005225 20 148 0.0 1.6 0.00 11.15 8.79 90 1012.5
20260510005149 20 148 0.0 0.0 0.00 11.15 8.79 90 1012.6
20260510005025 20 148 0.0 0.0 0.00 11.15 8.79 90 1012.6
20260510004938 20 148 0.0 0.0 0.00 11.15 8.79 90 1012.6
20260510004825 20 148 0.0 0.0 0.00 11.15 8.79 90 1012.6
20260510004746 20 148 0.0 0.0 0.00 11.15 8.79 90 1012.6
20260510004637 20 148 0.0 0.0 0.00 11.15 8.79 90 1012.5
20260510004533 20 148 0.0 0.0 0.00 11.15 8.79 90 1012.5
20260510004419 20 148 0.0 0.0 0.00 11.15 8.79 90 1012.4
20260510004331 20 148 0.0 0.0 0.00 11.15 8.79 90 1012.4
20260510004248 20 148 0.0 0.0 0.00 11.15 8.79 90 1012.4
20260510004143 20 148 0.0 0.0 0.00 11.15 8.79 90 1012.4
20260510004019 20 148 0.0 0.0 0.00 11.15 8.79 90 1012.4
20260510003924 20 148 0.0 0.0 0.00 11.15 8.79 90 1012.4
20260510003837 20 148 0.0 0.0 0.00 11.15 8.79 90 1012.3
20260510003724 20 148 0.0 0.0 0.00 11.15 8.79 90 1012.4
20260510003640 20 148 0.0 0.0 0.00 11.15 8.79 90 1012.3
20260510003520 20 148 0.0 0.0 0.00 11.15 8.79 90 1012.3
20260510003434 20 148 0.0 0.0 0.00 11.15 8.79 90 1012.3
20260510003320 20 148 0.0 1.6 0.00 11.15 8.79 90 1012.3
20260510003225 20 148 0.0 1.6 0.00 11.15 8.79 90 1012.3
20260510003149 20 148 0.0 1.6 0.00 11.15 8.79 90 1012.3
20260510003028 20 148 0.0 1.6 0.00 11.15 8.79 90 1012.2
20260510002934 20 148 0.0 1.6 0.00 11.15 8.79 90 1012.2
20260510002821 20 148 0.0 1.6 0.00 11.15 8.79 90 1012.2
20260510002719 20 148 0.0 1.6 0.00 11.15 8.79 90 1012.2
20260510002632 20 148 0.0 1.6 0.00 11.15 8.79 90 1012.1
20260510002533 20 148 0.0 1.6 0.00 11.15 8.79 90 1012.2
20260510002419 20 148 0.0 1.6 0.00 11.15 8.79 90 1012.1
20260510002331 20 148 0.0 0.0 0.00 11.15 8.79 90 1012.1
20260510002249 20 148 0.0 0.0 0.00 11.15 8.79 90 1012.2
20260510002140 20 148 0.0 0.0 0.00 11.15 8.79 90 1012.3
20260510002037 20 148 0.0 0.0 0.00 11.15 8.79 90 1012.2
20260510001928 20 148 0.0 0.0 0.03 11.15 8.79 90 1012.2
20260510001842 20 148 0.0 0.0 0.03 11.15 8.79 90 1012.1
20260510001740 20 148 0.0 0.0 0.03 11.15 8.79 90 1012.0
20260510001632 20 148 0.0 0.0 0.03 11.15 8.79 90 1012.0
20260510001526 20 148 0.0 1.6 0.03 11.15 8.79 90 1011.9
20260510001438 20 148 0.0 1.6 0.03 11.15 8.79 90 1011.9
20260510001328 20 148 0.0 3.2 0.03 11.15 8.79 90 1011.9
20260510001225 20 148 0.0 3.2 0.03 11.15 8.79 90 1011.8
20260510001138 20 148 0.0 3.2 0.03 11.15 8.79 90 1011.8
20260510001103 20 148 0.0 3.2 0.03 11.15 8.79 90 1011.7
20260510000928 20 148 0.0 3.2 0.03 11.15 8.79 90 1011.8
20260510000818 20 148 0.0 3.2 0.03 11.23 8.79 90 1011.7
20260510000724 20 148 0.0 3.2 0.03 11.23 8.79 90 1011.7
20260510000649 20 148 1.6 3.2 0.03 11.23 8.79 90 1011.7
20260510000524 20 148 1.6 3.2 0.03 11.23 8.79 90 1011.7
20260510000433 20 148 1.6 3.2 0.03 11.23 8.79 90 1011.7
20260510000319 20 148 0.0 3.2 0.03 11.23 8.79 90 1011.6
20260510000220 19 148 0.0 0.0 0.03 11.23 8.79 90 1011.6
20260510000133 19 148 0.0 0.0 0.03 11.23 8.79 90 1011.6
20260510000028 19 148 0.0 0.0 0.03 11.23 8.79 90 1011.5
20260509235942 20 148 0.0 0.0 0.03 11.23 8.79 90 1011.4
20260509235829 19 148 0.0 0.0 0.03 11.23 8.79 90 1011.4
20260509235719 19 148 0.0 0.0 0.03 11.23 8.79 90 1011.3
20260509235645 19 148 0.0 0.0 0.03 11.23 8.79 90 1011.2
20260509235520 19 148 0.0 0.0 0.03 11.23 8.79 90 1011.1
20260509235427 19 148 0.0 1.6 0.03 11.23 8.79 90 1011.0
20260509235334 19 148 0.0 1.6 0.03 11.23 8.79 90 1011.0
20260509235222 19 148 0.0 1.6 0.03 11.23 8.79 90 1010.9
20260509235147 19 148 0.0 1.6 0.03 11.23 8.79 90 1010.8
20260509235022 19 148 0.0 1.6 0.05 11.23 8.79 90 1010.9
20260509234935 19 148 0.0 1.6 0.05 11.23 8.79 90 1010.8
20260509234823 19 148 0.0 1.6 0.05 11.23 8.79 90 1010.8
20260509234720 19 148 0.0 1.6 0.05 11.23 8.79 90 1010.8
20260509234632 19 148 0.0 1.6 0.05 11.23 8.79 90 1010.8
20260509234539 19 148 0.0 1.6 0.05 11.23 8.79 90 1010.8
20260509234426 19 148 0.0 0.0 0.05 11.23 8.79 90 1010.8
20260509234334 19 148 0.0 0.0 0.05 11.23 8.79 90 1010.8
20260509234219 19 148 0.0 1.6 0.05 11.23 8.79 90 1010.8
20260509234143 19 148 0.0 1.6 0.08 11.23 8.79 90 1010.8
20260509234024 19 148 0.0 1.6 0.08 11.23 8.79 90 1010.8
20260509233930 19 148 0.0 1.6 0.08 11.23 8.79 90 1010.7
20260509233844 19 148 0.0 1.6 0.08 11.23 8.79 90 1010.7
20260509233740 19 148 0.0 1.6 0.10 11.23 8.79 90 1010.7
20260509233652 19 148 0.0 1.6 0.10 11.23 8.79 90 1010.7
20260509233529 19 148 0.0 1.6 0.10 11.23 8.79 90 1010.7
20260509233420 19 148 0.0 1.6 0.10 11.23 8.79 90 1010.8
20260509233328 19 148 0.0 1.6 0.10 11.23 8.79 90 1010.7
20260509233225 19 148 0.0 1.6 0.13 11.23 8.79 90 1010.8
20260509233157 19 148 0.0 1.6 0.13 11.23 8.79 90 1010.7
20260509233040 19 148 0.0 4.8 0.13 11.23 8.79 90 1010.7
20260509232946 19 148 0.0 4.8 0.13 11.23 8.79 90 1010.7
20260509232835 19 148 0.0 4.8 0.15 11.23 8.79 90 1010.6
20260509232723 19 148 0.0 4.8 0.15 11.23 8.79 90 1010.6
20260509232647 19 148 0.0 4.8 0.15 11.23 8.79 90 1010.5
20260509232522 19 156 0.0 4.8 0.18 11.23 8.79 90 1010.6
20260509232429 19 156 0.0 4.8 0.18 11.23 8.79 90 1010.5
20260509232320 19 156 0.0 4.8 0.20 11.23 8.79 90 1010.4
20260509232223 19 156 1.6 4.8 0.20 11.23 8.79 90 1010.4
20260509232158 19 155 1.6 4.8 0.23 11.23 8.79 90 1010.3
20260509232032 19 153 3.2 4.8 0.23 11.23 8.79 90 1010.3
20260509231920 19 154 1.6 4.8 0.20 11.20 8.76 90 1010.2
20260509231828 19 153 1.6 4.8 0.20 11.20 8.76 90 1010.1
20260509231719 19 152 0.0 4.8 0.23 11.20 8.76 90 1010.0
20260509231642 19 152 0.0 8.0 0.23 11.20 8.76 90 1010.1
20260509231537 19 152 0.0 9.7 0.23 11.20 8.76 90 1010.1
20260509231424 19 152 0.0 9.7 0.23 11.20 8.76 90 1010.1
20260509231338 19 152 0.0 9.7 0.25 11.20 8.76 90 1010.2
20260509231238 19 152 0.0 9.7 0.25 11.20 8.76 90 1010.2
20260509231151 19 152 1.6 11.3 0.25 11.20 8.76 90 1010.2
20260509231032 19 152 0.0 11.3 0.28 11.20 8.76 90 1010.2
20260509230935 19 152 1.6 11.3 0.28 11.20 8.76 90 1010.2
20260509230823 19 152 3.2 11.3 0.28 11.79 8.76 90 1010.2
20260509230720 19 118 3.2 11.3 0.30 11.79 8.76 90 1010.1
20260509230637 19 161 3.2 11.3 0.30 11.79 8.76 90 1010.1
20260509230600 19 159 1.6 11.3 0.30 11.79 8.76 90 1010.2
20260509230426 19 161 3.2 11.3 0.30 11.79 8.76 90 1010.1
20260509230331 19 161 3.2 11.3 0.33 11.79 8.76 90 1010.1
20260509230228 19 165 0.0 8.0 0.33 11.79 8.76 90 1010.2
20260509230202 19 165 0.0 8.0 0.33 11.79 8.76 90 1010.2
20260509230021 19 165 1.6 8.0 0.33 11.79 8.76 90 1010.2
20260509225928 19 165 1.6 8.0 0.33 11.79 8.76 90 1010.3
20260509225842 19 165 3.2 8.0 0.36 11.79 8.76 90 1010.3
20260509225720 19 235 1.6 6.4 0.36 11.79 8.76 90 1010.3
20260509225652 19 336 1.6 6.4 0.36 11.79 8.76 90 1010.3
20260509225528 19 158 0.0 6.4 0.36 11.79 8.76 90 1010.4
20260509225418 19 134 0.0 6.4 0.36 11.79 8.76 90 1010.4
20260509225325 19 134 0.0 6.4 0.38 11.79 8.76 90 1010.5
20260509225220 19 134 1.6 6.4 0.38 11.79 8.76 90 1010.5
20260509225132 19 134 1.6 6.4 0.36 11.76 8.74 90 1010.6
20260509225056 19 131 3.2 6.4 0.38 11.76 8.74 90 1010.6
20260509224925 19 176 1.6 4.8 0.38 11.76 8.74 90 1010.7
20260509224831 19 118 1.6 4.8 0.38 11.76 8.74 90 1010.7
20260509224728 19 123 1.6 4.8 0.41 11.76 8.74 90 1010.8
20260509224700 19 123 0.0 4.8 0.41 11.76 8.74 90 1010.9
20260509224544 19 123 1.6 4.8 0.41 11.76 8.74 90 1010.9
20260509224422 19 143 3.2 4.8 0.41 11.76 8.74 90 1010.9
20260509224320 19 115 1.6 4.8 0.43 11.76 8.74 90 1010.9
20260509224228 19 119 1.6 4.8 0.41 11.73 8.71 90 1010.9
20260509224213 19 136 1.6 8.0 0.41 11.73 8.71 90 1011.0
20260509224027 19 136 1.6 8.0 0.41 11.73 8.71 90 1011.1
20260509224000 19 126 1.6 8.0 0.43 11.73 8.71 90 1011.0
20260509223847 19 132 0.0 8.0 0.41 11.71 8.69 90 1011.1
20260509223727 19 132 0.0 8.0 0.43 11.71 8.69 90 1011.0
20260509223639 19 132 0.0 8.0 0.43 11.71 8.69 90 1011.0
20260509223602 19 134 0.0 8.0 0.43 11.71 8.69 90 1011.0
20260509223429 19 134 1.6 8.0 0.46 11.71 8.69 90 1011.1
20260509223336 19 134 1.6 8.0 0.46 11.71 8.69 90 1011.1
20260509223222 19 163 1.6 6.4 0.46 11.68 8.66 90 1011.1
20260509223207 19 163 3.2 6.4 0.46 11.68 8.66 90 1011.2
20260509223025 19 135 1.6 6.4 0.46 11.68 8.66 90 1011.2
20260509222939 19 125 0.0 6.4 0.43 11.66 8.64 90 1011.2
20260509222827 19 107 1.6 3.2 0.46 11.66 8.64 90 1011.1
20260509222724 19 106 1.6 3.2 0.46 11.66 8.64 90 1011.0
20260509222636 19 105 0.0 3.2 0.43 11.63 8.61 90 1010.9
20260509222536 19 105 0.0 1.6 0.43 11.63 8.61 90 1010.9
20260509222422 19 103 0.0 1.6 0.43 11.61 8.59 90 1010.9
20260509222356 19 103 0.0 1.6 0.43 11.61 8.59 90 1011.1
20260509222220 19 103 0.0 1.6 0.41 11.58 8.56 90 1011.1
20260509222137 19 104 0.0 1.6 0.43 11.58 8.56 90 1011.2
20260509222039 19 104 0.0 1.6 0.43 11.58 8.56 90 1011.2
20260509221930 19 104 0.0 1.6 0.43 11.58 8.56 90 1011.2
20260509221837 19 103 0.0 1.6 0.43 11.56 8.53 90 1011.2
20260509221751 19 103 0.0 0.0 0.43 11.56 8.53 90 1011.2
20260509221646 19 103 0.0 0.0 0.46 11.56 8.53 90 1011.2
20260509221521 19 103 0.0 0.0 0.48 11.56 8.53 90 1011.1
20260509221456 19 103 0.0 0.0 0.46 11.53 8.51 90 1011.1
20260509221325 19 103 0.0 0.0 0.48 11.53 8.51 90 1011.1
20260509221222 19 103 0.0 0.0 0.51 11.53 8.51 90 1011.1
20260509221156 19 103 0.0 0.0 0.51 11.53 8.51 90 1011.1
20260509221037 19 103 0.0 0.0 0.51 11.51 8.48 90 1011.1
20260509220924 19 103 0.0 0.0 0.51 11.51 8.48 90 1011.2
20260509220830 19 103 0.0 0.0 0.53 11.86 8.48 90 1011.2
20260509220720 19 103 0.0 0.0 0.51 11.84 8.46 90 1011.3
20260509220704 19 103 0.0 0.0 0.53 11.84 8.46 90 1011.4
20260509220519 19 103 0.0 0.0 0.53 11.84 8.46 90 1011.4
20260509220425 19 103 0.0 0.0 0.53 11.81 8.43 90 1011.5
20260509220339 19 103 0.0 1.6 0.53 11.81 8.43 90 1011.6
20260509220221 19 103 0.0 1.6 0.56 11.81 8.43 90 1011.6
20260509220147 19 103 0.0 1.6 0.56 11.81 8.43 90 1011.6
20260509220021 19 103 0.0 1.6 0.58 11.81 8.43 90 1011.6
20260509215934 19 103 0.0 1.6 0.58 11.79 8.41 90 1011.7
20260509215821 19 103 0.0 1.6 0.58 11.79 8.41 90 1011.7
20260509215718 19 103 0.0 1.6 0.61 11.79 8.41 90 1011.7
20260509215653 19 103 0.0 1.6 0.64 11.79 8.41 90 1011.7
20260509215535 19 103 0.0 1.6 0.64 11.79 8.41 90 1011.7
20260509215422 19 103 0.0 0.0 0.64 11.76 8.38 90 1011.7
20260509215328 19 103 0.0 0.0 0.64 11.76 8.38 90 1011.7
20260509215227 19 103 0.0 0.0 0.66 11.76 8.38 90 1011.8
20260509215140 19 103 0.0 1.6 0.69 11.76 8.38 90 1011.7
20260509215020 19 103 0.0 1.6 0.69 11.73 8.36 90 1011.7
20260509214928 19 103 0.0 1.6 0.69 11.73 8.36 90 1011.6
20260509214840 19 103 0.0 1.6 0.71 11.73 8.36 90 1011.6
20260509214728 19 103 0.0 1.6 0.71 11.71 8.33 90 1011.4
20260509214644 19 103 0.0 1.6 0.71 11.71 8.33 90 1011.3
20260509214523 19 103 0.0 1.6 0.74 11.71 8.33 90 1011.2
20260509214458 19 103 0.0 1.6 0.71 11.68 8.31 90 1011.1
20260509214325 19 103 0.0 1.6 0.74 11.68 8.31 90 1011.1
20260509214223 19 103 0.0 3.2 0.76 11.68 8.31 90 1011.0
20260509214135 19 103 0.0 3.2 0.79 11.68 8.31 90 1011.0
20260509214031 19 103 0.0 3.2 0.76 11.66 8.28 90 1010.9
20260509213923 19 103 0.0 3.2 0.79 11.66 8.28 90 1010.9
20260509213856 19 103 0.0 3.2 0.79 11.63 8.26 90 1010.9
20260509213749 19 103 0.0 3.2 0.86 11.63 8.26 90 1010.9
20260509213646 19 103 0.0 3.2 0.94 11.63 8.26 90 1010.9
20260509213521 19 103 1.6 3.2 1.07 11.61 8.23 90 1010.9
20260509213435 19 103 1.6 3.2 1.17 11.61 8.23 90 1010.8
20260509213321 19 159 0.0 3.2 1.30 11.58 8.20 90 1010.8
20260509213220 19 159 0.0 1.6 1.35 11.58 8.20 90 1010.8
20260509213154 19 159 0.0 1.6 1.37 11.58 8.20 90 1010.7
20260509213028 19 159 0.0 1.6 1.37 11.58 8.20 90 1010.7
20260509212940 19 159 0.0 1.6 1.40 11.58 8.20 90 1010.8
20260509212849 19 159 0.0 4.8 1.37 11.56 8.18 90 1010.7
20260509212720 19 159 0.0 4.8 1.37 11.56 8.18 90 1010.7
20260509212643 19 159 0.0 4.8 1.40 11.56 8.18 90 1010.7
20260509212540 19 159 0.0 4.8 1.37 11.53 8.15 90 1010.8
20260509212425 19 159 0.0 4.8 1.40 11.53 8.15 90 1010.8
20260509212339 19 159 0.0 4.8 1.40 11.53 8.15 90 1010.9
20260509212229 19 159 0.0 4.8 1.37 11.51 8.13 90 1011.0
20260509212214 19 159 0.0 4.8 1.40 11.51 8.13 90 1011.1
20260509212027 19 159 1.6 8.0 1.40 11.51 8.13 90 1011.0
20260509211934 19 159 1.6 8.0 1.37 11.48 8.10 90 1011.1
20260509211821 19 160 0.0 8.0 1.37 11.48 8.10 90 1011.1
20260509211718 19 160 0.0 8.0 1.35 11.46 8.08 90 1011.1
20260509211635 19 160 1.6 8.0 1.35 11.46 8.08 90 1011.2
20260509211530 19 160 1.6 8.0 1.35 11.43 8.05 90 1011.2
20260509211426 19 160 0.0 8.0 1.32 11.40 8.03 90 1011.2
20260509211331 19 160 0.0 8.0 1.32 11.40 8.03 90 1011.3
20260509211218 19 160 1.6 8.0 1.30 11.38 8.00 90 1011.3
20260509211145 19 160 1.6 8.0 1.30 11.38 8.00 90 1011.3
20260509211020 19 157 1.6 3.2 1.27 11.35 7.98 90 1011.3
20260509210927 19 157 1.6 4.8 1.24 11.33 7.95 90 1011.2
20260509210834 19 158 1.6 4.8 1.24 11.76 7.95 90 1011.2
20260509210721 19 157 0.0 4.8 1.22 11.73 7.92 90 1011.2
20260509210629 19 157 0.0 4.8 1.22 11.73 7.92 90 1011.2
20260509210523 19 156 0.0 4.8 1.19 11.71 7.90 90 1011.2
20260509210438 19 156 0.0 4.8 1.19 11.71 7.90 90 1011.3
20260509210325 19 156 0.0 4.8 1.19 11.71 7.90 90 1011.3
20260509210223 20 176 1.6 4.8 1.17 11.68 7.87 90 1011.4
20260509210136 20 176 1.6 4.8 1.14 11.66 7.85 90 1011.5
20260509210057 20 177 0.0 4.8 1.14 11.66 7.85 90 1011.6
20260509205923 19 178 0.0 4.8 1.12 11.63 7.82 90 1011.6
20260509205837 20 178 0.0 4.8 1.09 11.61 7.80 90 1011.7
20260509205724 20 178 0.0 4.8 1.09 11.61 7.80 90 1011.6
20260509205648 20 178 0.0 4.8 1.09 11.58 7.77 90 1011.7
20260509205526 20 178 1.6 4.8 1.07 11.56 7.75 90 1011.7
20260509205434 20 178 1.6 4.8 1.07 11.56 7.75 90 1011.7
20260509205323 20 139 1.6 4.8 1.04 11.53 7.72 90 1011.7
20260509205218 20 52 1.6 4.8 1.02 11.51 7.70 90 1011.7
20260509205131 20 52 1.6 4.8 1.04 11.51 7.70 90 1011.7
20260509205028 20 50 1.6 3.2 1.02 11.48 7.67 90 1011.8
20260509204918 20 49 0.0 3.2 0.99 11.46 7.65 90 1011.8
20260509204831 20 40 0.0 3.2 0.99 11.46 7.65 90 1011.8
20260509204748 20 38 0.0 3.2 0.97 11.43 7.62 90 1011.8
20260509204640 20 38 0.0 3.2 0.99 11.43 7.62 90 1011.9
20260509204536 20 38 0.0 3.2 0.97 11.40 7.59 90 1011.9
20260509204426 20 38 0.0 3.2 0.94 11.38 7.57 90 1011.9
20260509204339 20 38 0.0 3.2 0.91 11.35 7.54 90 1011.9
20260509204226 20 38 0.0 3.2 0.94 11.35 7.54 90 1011.8
20260509204141 20 38 0.0 3.2 0.91 11.33 7.52 90 1011.8
20260509204044 20 38 0.0 3.2 0.91 11.30 7.49 90 1011.8
20260509203930 20 37 0.0 1.6 0.89 11.28 7.47 90 1011.8
20260509203821 20 35 0.0 1.6 0.81 11.20 7.39 90 1011.8
20260509203740 20 34 0.0 1.6 0.74 11.13 7.32 90 1011.8
20260509203631 20 32 0.0 1.6 0.64 11.02 7.21 90 1011.8
20260509203554 20 31 0.0 1.6 0.53 10.87 7.06 90 1011.8
20260509203439 20 29 0.0 0.0 0.43 10.77 6.96 90 1011.9
20260509203334 20 28 0.0 0.0 0.36 10.67 6.86 90 1011.9
20260509203222 20 28 0.0 0.0 0.33 10.64 6.83 90 1012.0
20260509203208 20 28 0.0 0.0 0.36 10.64 6.83 90 1012.0
20260509203022 20 28 0.0 0.0 0.36 10.62 6.81 90 1012.0
20260509202927 20 28 0.0 0.0 0.36 10.62 6.81 90 1012.1
20260509202902 20 28 0.0 0.0 0.38 10.62 6.81 90 1012.0
20260509202727 20 28 0.0 1.6 0.36 10.59 6.78 90 1012.1
20260509202648 20 28 0.0 1.6 0.36 10.59 6.78 90 1012.1
20260509202523 20 28 0.0 1.6 0.36 10.57 6.76 90 1012.0
20260509202437 20 28 0.0 1.6 0.36 10.57 6.76 90 1012.0
20260509202325 20 28 0.0 1.6 0.36 10.57 6.76 90 1012.0
20260509202221 20 28 0.0 1.6 0.38 10.57 6.76 90 1011.9
20260509202137 20 28 0.0 1.6 0.36 10.54 6.73 90 1011.9
20260509202053 20 28 0.0 1.6 0.38 10.54 6.73 90 1011.8
20260509201918 20 28 0.0 1.6 0.41 10.54 6.73 90 1011.8
20260509201832 20 28 0.0 1.6 0.43 10.54 6.73 90 1011.8
20260509201719 20 28 0.0 0.0 0.46 10.54 6.73 90 1011.9
20260509201637 20 28 0.0 0.0 0.48 10.54 6.73 90 1011.8
20260509201523 20 28 0.0 1.6 0.46 10.52 6.71 90 1011.9
20260509201448 20 28 0.0 1.6 0.48 10.52 6.71 90 1011.9
20260509201342 20 28 0.0 1.6 0.51 10.52 6.71 90 1011.9
20260509201228 20 28 0.0 1.6 0.53 10.52 6.71 90 1011.8
20260509201145 20 28 0.0 1.6 0.58 10.52 6.71 90 1011.7
20260509201048 20 28 0.0 1.6 0.61 10.52 6.71 90 1011.7
20260509200918 20 28 0.0 1.6 0.61 10.52 6.71 90 1011.6
20260509200823 20 28 0.0 4.8 0.61 11.10 6.71 90 1011.6
20260509200720 20 28 0.0 6.4 0.64 11.10 6.71 90 1011.5
20260509200633 20 28 0.0 6.4 0.64 11.10 6.71 90 1011.6
20260509200527 20 28 0.0 6.4 0.64 11.10 6.71 90 1011.5
20260509200418 20 26 0.0 6.4 0.66 11.10 6.71 90 1011.5
20260509200331 20 26 0.0 6.4 0.66 11.10 6.71 90 1011.4
20260509200248 20 26 0.0 6.4 0.66 11.10 6.71 90 1011.4
20260509200140 20 26 0.0 6.4 0.69 11.10 6.71 90 1011.3
20260509200035 20 26 1.6 6.4 0.71 11.10 6.71 90 1011.3
20260509195921 20 26 1.6 6.4 0.74 11.10 6.71 90 1011.2
20260509195838 20 132 1.6 3.2 0.79 11.10 6.71 90 1011.1
20260509195724 20 144 0.0 3.2 0.84 11.07 6.68 90 1011.0
20260509195639 20 144 0.0 3.2 1.04 11.07 6.68 90 1011.0
20260509195542 20 152 0.0 3.2 1.24 11.07 6.68 90 1010.9
20260509195429 20 152 0.0 3.2 1.37 11.07 6.68 90 1010.9
20260509195321 20 152 0.0 1.6 1.40 11.07 6.68 90 1010.9
20260509195218 20 152 0.0 1.6 1.40 11.05 6.65 90 1010.9
20260509195151 20 153 0.0 1.6 1.40 11.05 6.65 90 1011.0
20260509195026 20 153 0.0 1.6 1.42 11.05 6.65 90 1011.0
20260509194940 20 153 0.0 1.6 1.42 11.05 6.65 90 1011.0
20260509194826 20 153 0.0 1.6 1.45 11.05 6.65 90 1011.0
20260509194718 20 153 0.0 1.6 1.42 11.02 6.63 90 1011.0
20260509194633 20 153 0.0 1.6 1.42 11.02 6.63 90 1011.0
20260509194555 20 153 0.0 1.6 1.45 11.02 6.63 90 1011.1
20260509194449 20 153 0.0 1.6 1.45 11.02 6.63 90 1011.1
20260509194355 20 153 0.0 4.8 1.45 11.00 6.60 90 1011.2
20260509194220 20 153 0.0 4.8 1.45 11.00 6.60 90 1011.2
20260509194144 20 153 0.0 4.8 1.47 11.00 6.60 90 1011.3
20260509194024 20 153 0.0 4.8 1.45 10.97 6.58 90 1011.3
20260509193931 20 153 0.0 4.8 1.47 10.97 6.58 90 1011.4
20260509193817 20 153 0.0 4.8 1.47 10.97 6.58 90 1011.5
20260509193729 20 153 0.0 4.8 1.47 10.97 6.58 90 1011.6
20260509193713 20 153 1.6 4.8 1.45 10.95 6.55 90 1011.7
20260509193532 20 103 1.6 4.8 1.45 10.92 6.53 90 1011.7
20260509193419 20 94 1.6 4.8 1.42 10.90 6.50 90 1011.8
20260509193346 20 92 1.6 4.8 1.42 10.90 6.50 90 1011.8
20260509193221 20 147 0.0 3.2 1.40 10.87 6.48 90 1011.8
20260509193136 20 147 0.0 3.2 1.37 10.85 6.45 90 1011.8
20260509193038 20 146 0.0 3.2 1.37 10.85 6.45 90 1011.7
20260509192929 20 146 0.0 14.5 1.37 10.85 6.45 90 1011.6
20260509192856 20 146 0.0 14.5 1.35 10.82 6.43 90 1011.6
20260509192721 20 146 0.0 14.5 1.35 10.82 6.43 90 1011.6
20260509192645 20 146 0.0 14.5 1.37 10.82 6.43 90 1011.6
20260509192540 20 146 1.6 14.5 1.35 10.79 6.40 90 1011.6
20260509192432 20 146 1.6 14.5 1.35 10.79 6.40 90 1011.7
20260509192322 20 153 3.2 14.5 1.32 10.77 6.38 90 1011.7
20260509192221 20 153 3.2 14.5 1.32 10.77 6.38 90 1011.8
20260509192132 20 153 4.8 14.5 1.30 10.74 6.35 90 1011.9
20260509192027 20 107 3.2 8.0 1.27 10.72 6.32 90 1011.9
20260509191940 20 140 1.6 8.0 1.24 10.69 6.30 90 1012.0
20260509191828 20 142 1.6 8.0 1.22 10.67 6.27 90 1012.0
20260509191718 20 143 1.6 8.0 1.19 10.64 6.25 90 1012.0
20260509191643 20 143 1.6 8.0 1.19 10.64 6.25 90 1012.1
20260509191520 20 222 3.2 8.0 1.17 10.62 6.22 90 1012.0
20260509191424 20 225 3.2 8.0 1.14 10.59 6.20 90 1012.0
20260509191359 20 140 3.2 8.0 1.12 10.57 6.17 90 1012.0
20260509191238 20 117 1.6 11.3 1.07 10.52 6.12 90 1012.1
20260509191128 20 141 1.6 11.3 1.04 10.49 6.10 90 1012.2
20260509191024 20 141 1.6 11.3 1.04 10.49 6.10 90 1012.3
20260509190959 20 137 0.0 11.3 1.04 10.49 6.10 90 1012.4
20260509190825 20 134 0.0 11.3 1.02 14.30 6.07 90 1012.4
20260509190722 20 134 0.0 11.3 1.02 14.30 6.07 90 1012.4
20260509190656 20 134 1.6 11.3 1.02 14.30 6.07 90 1012.4
20260509190536 20 134 3.2 11.3 0.99 14.27 6.05 90 1012.3
20260509190422 20 159 3.2 11.3 0.99 14.27 6.05 90 1012.2
20260509190336 20 137 3.2 11.3 0.99 14.27 6.05 90 1012.0
20260509190244 20 208 3.2 11.3 0.97 14.25 6.02 90 1011.9
20260509190146 20 115 4.8 11.3 0.97 14.25 6.02 90 1011.9
20260509190041 20 166 3.2 11.3 0.91 14.20 5.97 90 1011.9
20260509185931 20 216 3.2 6.4 0.89 14.17 5.94 90 1011.9
20260509185844 20 123 3.2 6.4 0.84 14.12 5.89 90 1011.9
20260509185741 20 148 1.6 6.4 0.58 13.87 5.64 90 1011.9
20260509185633 20 126 1.6 4.8 0.43 13.72 5.49 90 1011.9
20260509185528 20 126 0.0 4.8 0.28 13.56 5.33 90 1012.1
20260509185418 20 255 0.0 4.8 0.23 13.51 5.28 90 1012.2
20260509185332 20 255 0.0 4.8 0.23 13.51 5.28 90 1012.5
20260509185219 20 255 0.0 6.4 0.20 13.49 5.26 90 1012.6
20260509185135 20 255 0.0 6.4 0.18 13.46 5.23 90 1012.7
20260509185057 20 255 0.0 6.4 0.18 13.46 5.23 90 1012.7
20260509184943 20 255 0.0 6.4 0.15 13.44 5.21 90 1012.7
20260509184836 20 255 0.0 6.4 0.15 13.44 5.21 90 1012.7
20260509184725 20 259 1.6 6.4 0.15 13.44 5.21 90 1012.6
20260509184628 20 149 1.6 6.4 0.13 13.41 5.18 90 1012.5
20260509184543 20 148 3.2 6.4 0.13 13.41 5.18 90 1012.4
20260509184435 20 148 3.2 6.4 0.10 13.39 5.16 90 1012.4
20260509184321 20 113 1.6 11.3 0.10 13.39 5.16 90 1012.4
20260509184218 20 143 1.6 11.3 0.08 13.36 5.13 90 1012.4
20260509184135 20 143 1.6 11.3 0.08 13.36 5.13 90 1012.4
20260509184029 20 143 1.6 11.3 0.08 13.36 5.13 90 1012.4
20260509183943 20 143 1.6 11.3 0.05 13.34 5.11 90 1012.4
20260509183831 20 142 1.6 11.3 0.05 13.34 5.11 90 1012.3
20260509183746 20 138 3.2 11.3 0.05 13.34 5.11 90 1012.3
20260509183658 20 146 3.2 11.3 0.03 13.31 5.08 90 1012.3
20260509183541 20 144 3.2 11.3 0.03 13.31 5.08 90 1012.2
20260509183429 20 148 1.6 8.0 0.03 13.31 5.08 90 1012.1
20260509183336 20 148 1.6 8.0 0.03 13.31 5.08 90 1012.0
20260509183222 20 164 0.0 8.0 0.03 13.31 5.08 90 1012.1
20260509183146 20 164 0.0 8.0 0.03 13.31 5.08 90 1012.1
20260509183026 20 165 0.0 8.0 0.03 13.31 5.08 90 1012.2
20260509182932 20 165 1.6 8.0 0.03 13.31 5.08 90 1012.2
20260509182818 20 165 1.6 8.0 0.03 13.31 5.08 90 1012.2
20260509182723 20 172 0.0 3.2 0.00 13.28 5.05 90 1012.2
20260509182646 20 172 0.0 3.2 0.00 13.28 5.05 90 1012.1
20260509182520 20 172 1.6 4.8 0.00 13.28 5.05 90 1012.0
20260509182457 20 172 1.6 4.8 0.00 13.28 5.05 90 1011.9
20260509182323 20 113 0.0 4.8 0.00 13.28 5.05 90 1011.9
20260509182221 20 113 0.0 4.8 0.00 13.28 5.05 90 1012.0
20260509182134 20 113 0.0 4.8 0.00 13.28 5.05 90 1012.0
20260509182028 20 113 0.0 4.8 0.00 13.28 5.05 90 1012.1
20260509182003 20 113 0.0 4.8 0.00 13.28 5.05 90 1012.1
20260509181832 20 110 1.6 4.8 0.00 13.28 5.05 90 1012.2
20260509181718 20 110 1.6 4.8 0.00 13.28 5.05 90 1012.3
20260509181642 20 110 1.6 4.8 0.03 13.28 5.05 90 1012.3
20260509181539 20 119 1.6 4.8 0.03 13.28 5.05 90 1012.4
20260509181425 20 134 0.0 8.0 0.03 13.28 5.05 90 1012.4
20260509181338 20 134 1.6 8.0 0.03 13.28 5.05 90 1012.5
20260509181240 20 134 1.6 8.0 0.03 13.28 5.05 90 1012.6
20260509181132 20 134 1.6 8.0 0.03 13.28 5.05 90 1012.6
20260509181027 20 134 1.6 8.0 0.03 13.28 5.05 90 1012.6
20260509181002 20 134 1.6 8.0 0.03 13.28 5.05 90 1012.6
20260509180827 20 134 0.0 8.0 0.03 15.82 5.05 90 1012.6
20260509180718 20 134 1.6 8.0 0.03 15.82 5.05 90 1012.5
20260509180642 20 134 1.6 8.0 0.03 15.82 5.05 90 1012.4
20260509180555 20 134 3.2 8.0 0.03 15.82 5.05 90 1012.4
20260509180449 20 38 1.6 3.2 0.03 15.82 5.05 90 1012.3
20260509180335 20 38 1.6 3.2 0.03 15.82 5.05 90 1012.3
20260509180222 20 38 1.6 3.2 0.03 15.82 5.05 90 1012.2
20260509180129 20 38 0.0 1.6 0.03 15.82 5.05 90 1012.1
20260509180024 20 38 0.0 1.6 0.03 15.82 5.05 90 1012.1
20260509175958 20 38 0.0 1.6 0.03 15.82 5.05 90 1012.0
20260509175825 20 38 0.0 1.6 0.03 15.82 5.05 90 1011.9
20260509175721 20 38 0.0 3.2 0.03 15.82 5.05 90 1011.9
20260509175654 20 38 0.0 3.2 0.03 15.82 5.05 90 1011.8
20260509175534 20 38 0.0 3.2 0.03 15.82 5.05 90 1011.8
20260509175422 20 38 0.0 3.2 0.03 15.82 5.05 90 1011.8
20260509175330 20 38 0.0 3.2 0.03 15.82 5.05 90 1011.8
20260509175224 20 38 0.0 3.2 0.03 15.82 5.05 90 1011.7
20260509175137 20 38 0.0 3.2 0.03 15.82 5.05 90 1011.7
20260509175017 20 38 0.0 3.2 0.03 15.82 5.05 90 1011.7
20260509174923 20 38 0.0 3.2 0.03 15.82 5.05 90 1011.7
20260509174837 20 38 0.0 3.2 0.03 15.82 5.05 90 1011.8
20260509174722 20 38 0.0 3.2 0.03 15.82 5.05 90 1011.8
20260509174646 20 38 0.0 3.2 0.03 15.82 5.05 90 1011.7
20260509174521 20 38 1.6 3.2 0.03 15.82 5.05 90 1011.7
20260509174454 20 38 1.6 3.2 0.03 15.82 5.05 90 1011.8
20260509174324 20 36 0.0 3.2 0.03 15.82 5.05 90 1011.7
20260509174242 20 36 0.0 3.2 0.03 15.82 5.05 90 1011.7
20260509174133 20 36 0.0 3.2 0.03 15.82 5.05 90 1011.8
20260509174036 20 36 0.0 3.2 0.03 15.82 5.05 90 1011.8
20260509173944 20 36 0.0 6.4 0.03 15.82 5.05 90 1011.8
20260509173858 20 36 0.0 6.4 0.03 15.82 5.05 90 1011.7
20260509173737 20 36 0.0 6.4 0.03 15.82 5.05 90 1011.6
20260509173628 20 36 0.0 6.4 0.03 15.82 5.05 90 1011.6
20260509173524 20 36 0.0 6.4 0.03 15.82 5.05 90 1011.6
20260509173432 20 36 0.0 6.4 0.03 15.82 5.05 90 1011.5
20260509173320 20 36 1.6 6.4 0.03 15.82 5.05 90 1011.6
20260509173244 20 36 1.6 6.4 0.03 15.82 5.05 90 1011.6
20260509173140 20 36 1.6 6.4 0.03 15.82 5.05 90 1011.6
20260509173035 20 244 0.0 6.4 0.03 15.82 5.05 90 1011.6
20260509172923 20 244 0.0 6.4 0.03 15.82 5.05 90 1011.6
20260509172830 20 238 0.0 6.4 0.03 15.82 5.05 90 1011.6
20260509172725 20 98 0.0 6.4 0.03 15.82 5.05 90 1011.6
20260509172639 20 98 0.0 6.4 0.03 15.82 5.05 90 1011.7
20260509172518 20 98 0.0 6.4 0.03 15.82 5.05 90 1011.7
20260509172432 20 98 0.0 6.4 0.03 15.82 5.05 90 1011.7
20260509172320 20 98 1.6 6.4 0.03 15.82 5.05 90 1011.8
20260509172217 20 98 1.6 6.4 0.03 15.82 5.05 90 1011.8
20260509172151 20 95 0.0 4.8 0.03 15.82 5.05 90 1011.8
20260509172031 20 94 0.0 4.8 0.03 15.82 5.05 90 1011.8
20260509171936 20 94 1.6 4.8 0.03 15.82 5.05 90 1011.8
20260509171823 20 94 1.6 4.8 0.03 15.82 5.05 90 1011.8
20260509171739 20 88 0.0 3.2 0.00 15.80 5.03 90 1011.9
20260509171633 20 88 0.0 3.2 0.00 15.80 5.03 90 1011.8
20260509171535 20 88 0.0 4.8 0.00 15.80 5.03 90 1011.8
20260509171425 20 88 0.0 4.8 0.00 15.80 5.03 90 1011.7
20260509171333 20 88 0.0 4.8 0.00 15.80 5.03 90 1011.7
20260509171219 20 86 0.0 4.8 0.03 15.80 5.03 90 1011.7
20260509171143 20 86 0.0 4.8 0.03 15.80 5.03 90 1011.8
20260509171018 20 86 0.0 4.8 0.03 15.80 5.03 90 1011.8
20260509170929 20 86 0.0 4.8 0.03 15.80 5.03 90 1011.8
20260509170843 20 86 1.6 4.8 0.03 18.36 5.03 90 1011.8
20260509170741 20 86 1.6 4.8 0.03 18.36 5.03 90 1011.8
20260509170631 20 84 0.0 4.8 0.03 18.36 5.03 90 1011.8
20260509170555 20 69 0.0 4.8 0.03 18.36 5.03 90 1011.8
20260509170420 20 69 0.0 4.8 0.03 18.36 5.03 90 1011.9
20260509170354 20 69 0.0 4.8 0.03 18.36 5.03 90 1011.9
20260509170244 20 69 1.6 4.8 0.03 18.36 5.03 90 1012.0
20260509170147 20 69 1.6 4.8 0.03 18.36 5.03 90 1012.0
20260509170023 20 59 0.0 4.8 0.03 18.36 5.03 90 1012.1
20260509165930 20 59 0.0 4.8 0.03 18.36 5.03 90 1012.2
20260509165817 20 59 0.0 4.8 0.03 18.36 5.03 90 1012.2
20260509165719 20 59 0.0 4.8 0.03 18.36 5.03 90 1012.2
20260509165630 19 59 0.0 4.8 0.03 18.36 5.03 90 1012.2
20260509165525 19 59 0.0 4.8 0.03 18.36 5.03 90 1012.1
20260509165439 19 59 0.0 4.8 0.03 18.36 5.03 90 1012.1
20260509165346 19 59 0.0 4.8 0.03 18.36 5.03 90 1012.1
20260509165222 19 57 0.0 1.6 0.05 18.36 5.03 90 1012.1
20260509165138 19 57 0.0 1.6 0.05 18.36 5.03 90 1012.1
20260509165035 19 57 0.0 1.6 0.05 18.36 5.03 90 1012.0
20260509164923 19 57 0.0 1.6 0.05 18.36 5.03 90 1012.0
20260509164855 19 57 0.0 1.6 0.05 18.36 5.03 90 1012.0
20260509164720 19 57 0.0 1.6 0.05 18.36 5.03 90 1012.0
20260509164644 19 57 0.0 1.6 0.05 18.36 5.03 90 1012.0
20260509164524 19 57 0.0 3.2 0.05 18.36 5.03 90 1012.0
20260509164432 19 57 0.0 3.2 0.05 18.36 5.03 90 1011.9
20260509164319 19 57 0.0 3.2 0.05 18.36 5.03 90 1011.9
20260509164232 19 57 0.0 3.2 0.05 18.36 5.03 90 1011.9
20260509164128 19 57 0.0 4.8 0.05 18.36 5.03 90 1011.8
20260509164036 19 57 0.0 4.8 0.05 18.36 5.03 90 1011.9
20260509163941 19 57 0.0 4.8 0.05 18.36 5.03 90 1011.9
20260509163828 19 57 1.6 4.8 0.05 18.36 5.03 90 1011.9
20260509163745 19 57 0.0 4.8 0.05 18.36 5.03 90 1011.9
20260509163637 19 53 1.6 4.8 0.05 18.36 5.03 90 1011.9
20260509163559 19 119 0.0 6.4 0.05 18.36 5.03 90 1012.0
20260509163429 19 121 1.6 6.4 0.05 18.36 5.03 90 1012.1
20260509163336 19 121 1.6 6.4 0.05 18.36 5.03 90 1012.2
20260509163222 19 198 1.6 6.4 0.05 18.36 5.03 90 1012.2
20260509163207 19 198 1.6 6.4 0.05 18.36 5.03 90 1012.3
20260509163022 19 123 1.6 6.4 0.05 18.36 5.03 90 1012.4
20260509162955 19 123 3.2 6.4 0.08 18.36 5.03 90 1012.5
20260509162824 19 123 1.6 6.4 0.08 18.36 5.03 90 1012.6
20260509162721 19 120 1.6 6.4 0.08 18.36 5.03 90 1012.6
20260509162656 19 152 1.6 8.0 0.08 18.36 5.03 90 1012.7
20260509162529 19 152 1.6 8.0 0.08 18.36 5.03 90 1012.6
20260509162443 19 153 1.6 8.0 0.08 18.36 5.03 90 1012.7
20260509162329 19 153 1.6 8.0 0.08 18.36 5.03 90 1012.7
20260509162220 19 141 1.6 4.8 0.10 18.36 5.03 90 1012.6
20260509162143 19 141 1.6 4.8 0.10 18.36 5.03 90 1012.7
20260509162019 19 141 1.6 4.8 0.10 18.36 5.03 90 1012.6
20260509161925 19 141 1.6 4.8 0.13 18.36 5.03 90 1012.6
20260509161839 19 141 1.6 4.8 0.13 18.36 5.03 90 1012.5
20260509161722 19 141 0.0 4.8 0.13 18.36 5.03 90 1012.5
20260509161646 19 141 0.0 4.8 0.13 18.36 5.03 90 1012.4
20260509161549 19 141 1.6 4.8 0.13 18.36 5.03 90 1012.4
20260509161434 19 141 1.6 4.8 0.13 18.36 5.03 90 1012.4
20260509161319 19 141 1.6 4.8 0.10 18.34 5.00 90 1012.3
20260509161217 19 140 1.6 3.2 0.10 18.34 5.00 90 1012.3
20260509161133 19 140 1.6 3.2 0.10 18.34 5.00 90 1012.2
20260509161029 19 140 0.0 3.2 0.10 18.34 5.00 90 1012.2
20260509160920 19 139 0.0 3.2 0.10 18.34 5.00 90 1012.2
20260509160854 19 139 1.6 3.2 0.10 18.34 5.00 90 1012.2
20260509160720 19 140 0.0 3.2 0.10 18.34 5.00 90 1012.1
20260509160637 19 139 0.0 1.6 0.10 18.34 5.00 90 1012.2
20260509160517 19 139 0.0 3.2 0.10 18.34 5.00 90 1012.2
20260509160431 19 139 0.0 3.2 0.10 18.34 5.00 90 1012.2
20260509160317 19 139 0.0 3.2 0.10 18.34 5.00 90 1012.2
20260509160244 19 139 0.0 3.2 0.10 18.34 5.00 90 1012.3
20260509160146 19 139 0.0 3.2 0.10 18.34 5.00 90 1012.3
20260509160021 19 139 0.0 3.2 0.10 18.34 5.00 90 1012.3
20260509155956 19 139 0.0 3.2 0.10 18.34 5.00 90 1012.3
20260509155825 19 139 0.0 3.2 0.10 18.34 5.00 90 1012.2
20260509155743 19 139 0.0 3.2 0.10 18.34 5.00 90 1012.2
20260509155635 19 139 0.0 3.2 0.10 18.34 5.00 90 1012.1
20260509155531 19 142 0.0 1.6 0.10 18.34 5.00 90 1012.1
20260509155418 19 142 0.0 1.6 0.10 18.34 5.00 90 1012.1
20260509155317 19 142 0.0 1.6 0.08 18.31 4.98 90 1012.2
20260509155222 19 142 0.0 1.6 0.08 18.31 4.98 90 1012.2
20260509155146 19 142 0.0 1.6 0.08 18.31 4.98 90 1012.2
20260509155021 19 142 0.0 1.6 0.08 18.31 4.98 90 1012.3
20260509154925 19 142 0.0 1.6 0.08 18.31 4.98 90 1012.3
20260509154839 19 142 0.0 1.6 0.08 18.31 4.98 90 1012.4
20260509154729 19 142 0.0 1.6 0.08 18.31 4.98 90 1012.4
20260509154713 19 142 0.0 1.6 0.08 18.31 4.98 90 1012.4
20260509154529 19 142 0.0 3.2 0.08 18.31 4.98 90 1012.4
20260509154455 19 142 0.0 3.2 0.10 18.31 4.98 90 1012.4
20260509154320 19 142 0.0 3.2 0.10 18.31 4.98 90 1012.5
20260509154218 19 142 0.0 3.2 0.10 18.31 4.98 90 1012.5
20260509154135 19 142 0.0 3.2 0.10 18.31 4.98 90 1012.5
20260509154038 19 142 0.0 3.2 0.10 18.31 4.98 90 1012.5
20260509153926 19 142 0.0 3.2 0.10 18.31 4.98 90 1012.5
20260509153833 19 142 0.0 3.2 0.10 18.31 4.98 90 1012.6
20260509153721 19 142 0.0 3.2 0.10 18.31 4.98 90 1012.6
20260509153647 19 143 0.0 4.8 0.10 18.31 4.98 90 1012.7
20260509153524 19 143 0.0 4.8 0.10 18.31 4.98 90 1012.6